Time,TemperatureF,DewpointF,PressureIn,WindDirection,WindDirectionDegrees,WindSpeedMPH,WindSpeedGustMPH,Humidity,HourlyPrecipIn,Conditions,Clouds,dailyrainin,SoftwareType,DateUTC
2013-03-30 00:00:00,66.4,56.3,-100.00,SE,131,16.0,18.0,70,0.00,,,0.00,meteohub,2013-03-30 05:00:00,
2013-03-30 00:03:00,66.6,56.5,-100.00,SSE,162,5.0,18.0,70,0.00,,,0.00,meteohub,2013-03-30 05:03:00,
2013-03-30 00:05:00,66.6,56.5,-100.00,SSE,155,11.0,18.0,70,0.00,,,0.00,meteohub,2013-03-30 05:05:00,
2013-03-30 00:08:00,66.4,56.3,-100.00,SSE,161,6.0,18.0,70,0.00,,,0.00,meteohub,2013-03-30 05:08:00,
2013-03-30 00:09:00,66.4,56.3,-100.00,SSE,161,14.0,18.0,70,0.00,,,0.00,meteohub,2013-03-30 05:09:00,
2013-03-30 00:10:00,66.4,56.3,-100.00,SSE,159,9.0,18.0,70,0.00,,,0.00,meteohub,2013-03-30 05:10:00,
2013-03-30 00:13:00,66.4,56.3,-100.00,SE,140,11.0,18.0,70,0.00,,,0.00,meteohub,2013-03-30 05:13:00,
2013-03-30 00:14:00,66.4,56.3,-100.00,SSE,147,5.0,18.0,70,0.00,,,0.00,meteohub,2013-03-30 05:14:00,
2013-03-30 00:16:00,66.4,56.7,-100.00,SSE,148,10.0,18.0,71,0.00,,,0.00,meteohub,2013-03-30 05:16:00,
2013-03-30 00:19:00,66.0,56.3,-100.00,SSE,159,7.0,17.0,71,0.00,,,0.00,meteohub,2013-03-30 05:19:00,
2013-03-30 00:20:00,66.0,56.3,-100.00,SSE,157,10.0,17.0,71,0.00,,,0.00,meteohub,2013-03-30 05:20:00,
2013-03-30 00:21:00,66.0,56.3,-100.00,SE,142,8.0,17.0,71,0.00,,,0.00,meteohub,2013-03-30 05:21:00,
2013-03-30 00:24:00,66.0,56.3,-100.00,SSE,150,13.0,17.0,71,0.00,,,0.00,meteohub,2013-03-30 05:24:00,
2013-03-30 00:25:00,66.0,56.3,-100.00,SE,143,8.0,17.0,71,0.00,,,0.00,meteohub,2013-03-30 05:25:00,
2013-03-30 00:27:00,66.0,56.3,-100.00,SSE,163,9.0,17.0,71,0.00,,,0.00,meteohub,2013-03-30 05:27:00,
2013-03-30 00:29:00,66.0,56.3,-100.00,SSE,149,12.0,17.0,71,0.00,,,0.00,meteohub,2013-03-30 05:29:00,
2013-03-30 00:30:00,66.0,56.3,-100.00,SSE,153,10.0,17.0,71,0.00,,,0.00,meteohub,2013-03-30 05:30:00,
2013-03-30 00:32:00,66.0,56.3,-100.00,SSE,154,10.0,17.0,71,0.00,,,0.00,meteohub,2013-03-30 05:32:00,
2013-03-30 00:34:00,66.0,56.3,-100.00,SSE,152,6.0,17.0,71,0.00,,,0.00,meteohub,2013-03-30 05:34:00,
2013-03-30 00:35:00,66.0,56.3,-100.00,SSE,162,11.0,17.0,71,0.00,,,0.00,meteohub,2013-03-30 05:35:00,
2013-03-30 00:36:00,66.0,56.3,-100.00,SSE,150,13.0,17.0,71,0.00,,,0.00,meteohub,2013-03-30 05:36:00,
2013-03-30 00:37:00,66.0,56.3,-100.00,SSE,167,16.0,17.0,71,0.00,,,0.00,meteohub,2013-03-30 05:37:00,
2013-03-30 00:40:00,66.0,56.3,-100.00,SSE,161,12.0,17.0,71,0.00,,,0.00,meteohub,2013-03-30 05:40:00,
2013-03-30 00:41:00,66.4,56.7,-100.00,SSE,157,13.0,17.0,71,0.00,,,0.00,meteohub,2013-03-30 05:41:00,
2013-03-30 00:42:00,66.4,56.7,-100.00,South,171,10.0,20.0,71,0.00,,,0.00,meteohub,2013-03-30 05:42:00,
2013-03-30 00:45:00,66.4,56.7,-100.00,South,171,6.0,20.0,71,0.00,,,0.00,meteohub,2013-03-30 05:45:00,
2013-03-30 00:47:00,66.0,56.3,-100.00,SSE,167,6.0,20.0,71,0.00,,,0.00,meteohub,2013-03-30 05:47:00,
2013-03-30 00:50:00,66.0,56.3,-100.00,South,190,4.0,20.0,71,0.00,,,0.00,meteohub,2013-03-30 05:50:00,
2013-03-30 00:51:00,66.0,56.3,-100.00,South,183,9.0,20.0,71,0.00,,,0.00,meteohub,2013-03-30 05:51:00,
2013-03-30 00:52:00,66.0,56.7,-100.00,South,189,9.0,20.0,72,0.00,,,0.00,meteohub,2013-03-30 05:52:00,
2013-03-30 00:55:00,66.0,56.7,-100.00,SSW,199,7.0,20.0,72,0.00,,,0.00,meteohub,2013-03-30 05:55:00,
2013-03-30 00:56:00,66.0,56.7,-100.00,SSW,200,10.0,20.0,72,0.00,,,0.00,meteohub,2013-03-30 05:56:00,
2013-03-30 00:57:00,66.0,56.7,-100.00,SSW,202,5.0,17.0,72,0.00,,,0.00,meteohub,2013-03-30 05:57:00,
2013-03-30 01:00:00,65.8,56.5,-100.00,SSW,203,7.0,17.0,72,0.00,,,0.00,meteohub,2013-03-30 06:00:00,
2013-03-30 01:01:00,65.8,57.0,-100.00,SSW,202,6.0,17.0,73,0.00,,,0.00,meteohub,2013-03-30 06:01:00,
2013-03-30 01:02:00,65.8,57.0,-100.00,SSW,211,8.0,17.0,73,0.00,,,0.00,meteohub,2013-03-30 06:02:00,
2013-03-30 01:05:00,65.7,56.8,-100.00,SW,223,6.0,17.0,73,0.00,,,0.00,meteohub,2013-03-30 06:05:00,
2013-03-30 01:06:00,65.7,56.8,-100.00,SW,229,5.0,17.0,73,0.00,,,0.00,meteohub,2013-03-30 06:06:00,
2013-03-30 01:07:00,65.7,56.8,-100.00,SW,219,6.0,17.0,73,0.00,,,0.00,meteohub,2013-03-30 06:07:00,
2013-03-30 01:08:00,65.7,56.8,-100.00,SW,219,6.0,17.0,73,0.00,,,0.00,meteohub,2013-03-30 06:08:00,
2013-03-30 01:10:00,65.7,57.2,-100.00,SW,221,4.0,17.0,74,0.00,,,0.00,meteohub,2013-03-30 06:10:00,
2013-03-30 01:12:00,65.5,57.0,-100.00,SW,222,6.0,13.0,74,0.00,,,0.00,meteohub,2013-03-30 06:12:00,
2013-03-30 01:13:00,65.5,57.0,-100.00,SW,232,5.0,13.0,74,0.00,,,0.00,meteohub,2013-03-30 06:13:00,
2013-03-30 01:16:00,65.5,57.0,-100.00,SSW,209,9.0,13.0,74,0.00,,,0.00,meteohub,2013-03-30 06:16:00,
2013-03-30 01:17:00,65.5,57.0,-100.00,SSW,213,7.0,13.0,74,0.00,,,0.00,meteohub,2013-03-30 06:17:00,
2013-03-30 01:18:00,65.5,56.7,-100.00,SSW,212,11.0,13.0,73,0.00,,,0.00,meteohub,2013-03-30 06:18:00,
2013-03-30 01:19:00,65.5,57.0,-100.00,SW,219,5.0,13.0,74,0.00,,,0.00,meteohub,2013-03-30 06:19:00,
2013-03-30 01:21:00,65.3,56.8,-100.00,SSW,209,13.0,13.0,74,0.00,,,0.00,meteohub,2013-03-30 06:21:00,
2013-03-30 01:23:00,65.3,56.8,-100.00,SSW,202,13.0,13.0,74,0.00,,,0.00,meteohub,2013-03-30 06:23:00,
2013-03-30 01:24:00,65.3,56.8,-100.00,SSW,201,10.0,13.0,74,0.00,,,0.00,meteohub,2013-03-30 06:24:00,
2013-03-30 01:26:00,65.3,56.8,-100.00,SSW,209,10.0,14.0,74,0.00,,,0.00,meteohub,2013-03-30 06:26:00,
2013-03-30 01:29:00,65.3,57.2,-100.00,SW,229,11.0,14.0,75,0.00,,,0.00,meteohub,2013-03-30 06:29:00,
2013-03-30 01:32:00,65.3,57.2,-100.00,SSW,211,9.0,14.0,75,0.00,,,0.00,meteohub,2013-03-30 06:32:00,
2013-03-30 01:34:00,65.3,57.2,-100.00,SW,215,11.0,14.0,75,0.00,,,0.00,meteohub,2013-03-30 06:34:00,
2013-03-30 01:37:00,65.3,57.2,-100.00,SSW,200,11.0,14.0,75,0.00,,,0.00,meteohub,2013-03-30 06:37:00,
2013-03-30 01:39:00,65.3,57.2,-100.00,SW,224,11.0,14.0,75,0.00,,,0.00,meteohub,2013-03-30 06:39:00,
2013-03-30 01:40:00,65.3,57.2,-100.00,SSW,211,9.0,14.0,75,0.00,,,0.00,meteohub,2013-03-30 06:40:00,
2013-03-30 01:41:00,65.3,57.2,-100.00,SSW,202,10.0,14.0,75,0.00,,,0.00,meteohub,2013-03-30 06:41:00,
2013-03-30 01:43:00,65.3,57.2,-100.00,SSW,205,7.0,14.0,75,0.00,,,0.00,meteohub,2013-03-30 06:43:00,
2013-03-30 01:45:00,65.3,57.2,-100.00,SSW,207,11.0,14.0,75,0.00,,,0.00,meteohub,2013-03-30 06:45:00,
2013-03-30 01:46:00,65.3,57.2,-100.00,SSW,197,11.0,14.0,75,0.00,,,0.00,meteohub,2013-03-30 06:46:00,
2013-03-30 01:48:00,65.3,57.2,-100.00,SW,217,10.0,14.0,75,0.00,,,0.00,meteohub,2013-03-30 06:48:00,
2013-03-30 01:50:00,65.3,57.2,-100.00,SSW,208,7.0,14.0,75,0.00,,,0.00,meteohub,2013-03-30 06:50:00,
2013-03-30 01:51:00,65.3,57.2,-100.00,SSW,209,6.0,14.0,75,0.00,,,0.00,meteohub,2013-03-30 06:51:00,
2013-03-30 01:52:00,65.3,57.2,-100.00,SSW,204,6.0,14.0,75,0.00,,,0.00,meteohub,2013-03-30 06:52:00,
2013-03-30 01:53:00,65.3,57.2,-100.00,SSW,205,10.0,14.0,75,0.00,,,0.00,meteohub,2013-03-30 06:53:00,
2013-03-30 01:55:00,65.3,57.2,-100.00,SSW,204,7.0,14.0,75,0.00,,,0.00,meteohub,2013-03-30 06:55:00,
2013-03-30 01:56:00,65.3,57.2,-100.00,SSW,205,9.0,15.0,75,0.00,,,0.00,meteohub,2013-03-30 06:56:00,
2013-03-30 01:58:00,65.3,57.2,-100.00,SSW,202,7.0,15.0,75,0.00,,,0.00,meteohub,2013-03-30 06:58:00,
2013-03-30 01:59:00,65.5,57.4,-100.00,SSW,205,7.0,15.0,75,0.00,,,0.00,meteohub,2013-03-30 06:59:00,
2013-03-30 02:01:00,65.5,57.4,-100.00,SSW,202,8.0,16.0,75,0.00,,,0.00,meteohub,2013-03-30 07:01:00,
2013-03-30 02:03:00,65.5,57.4,-100.00,SSW,206,7.0,16.0,75,0.00,,,0.00,meteohub,2013-03-30 07:03:00,
2013-03-30 02:05:00,65.5,57.4,-100.00,SSW,195,14.0,16.0,75,0.00,,,0.00,meteohub,2013-03-30 07:05:00,
2013-03-30 02:06:00,65.5,57.4,-100.00,SSW,205,9.0,16.0,75,0.00,,,0.00,meteohub,2013-03-30 07:06:00,
2013-03-30 02:07:00,65.5,57.4,-100.00,SSW,204,11.0,16.0,75,0.00,,,0.00,meteohub,2013-03-30 07:07:00,
2013-03-30 02:08:00,65.5,57.4,-100.00,SSW,198,8.0,16.0,75,0.00,,,0.00,meteohub,2013-03-30 07:08:00,
2013-03-30 02:11:00,65.5,57.4,-100.00,SSW,196,6.0,16.0,75,0.00,,,0.00,meteohub,2013-03-30 07:11:00,
2013-03-30 02:12:00,65.5,57.4,-100.00,SSW,196,6.0,16.0,75,0.00,,,0.00,meteohub,2013-03-30 07:12:00,
2013-03-30 02:13:00,65.5,57.7,-100.00,SSW,199,10.0,16.0,76,0.00,,,0.00,meteohub,2013-03-30 07:13:00,
2013-03-30 02:16:00,65.5,57.7,-100.00,SSW,207,10.0,16.0,76,0.00,,,0.00,meteohub,2013-03-30 07:16:00,
2013-03-30 02:17:00,65.5,57.7,-100.00,SW,220,10.0,16.0,76,0.00,,,0.00,meteohub,2013-03-30 07:17:00,
2013-03-30 02:18:00,65.5,57.7,-100.00,SW,216,5.0,16.0,76,0.00,,,0.00,meteohub,2013-03-30 07:18:00,
2013-03-30 02:21:00,65.5,57.7,-100.00,NW,319,6.0,13.0,76,0.00,,,0.00,meteohub,2013-03-30 07:21:00,
2013-03-30 02:22:00,65.5,57.7,-100.00,NW,319,9.0,13.0,76,0.00,,,0.00,meteohub,2013-03-30 07:22:00,
2013-03-30 02:23:00,65.5,57.7,-100.00,North,355,12.0,13.0,76,0.00,,,0.00,meteohub,2013-03-30 07:23:00,
2013-03-30 02:26:00,64.8,55.2,-100.00,North,0,18.0,18.0,71,0.00,,,0.00,meteohub,2013-03-30 07:26:00,
2013-03-30 02:27:00,64.8,55.2,-100.00,North,349,15.0,18.0,71,0.00,,,0.00,meteohub,2013-03-30 07:27:00,
2013-03-30 02:28:00,64.2,53.4,-100.00,NNW,340,15.0,18.0,68,0.00,,,0.00,meteohub,2013-03-30 07:28:00,
2013-03-30 02:31:00,63.1,55.8,-100.00,NNW,348,9.0,22.0,77,0.00,,,0.00,meteohub,2013-03-30 07:31:00,
2013-03-30 02:33:00,62.6,55.6,-100.00,NNW,338,15.0,22.0,78,0.00,,,0.00,meteohub,2013-03-30 07:33:00,
2013-03-30 02:34:00,61.9,55.6,-100.00,NW,318,18.0,22.0,80,0.00,,,0.00,meteohub,2013-03-30 07:34:00,
2013-03-30 02:37:00,60.6,55.0,-100.00,NNW,332,14.0,25.0,82,0.02,,,0.02,meteohub,2013-03-30 07:37:00,
2013-03-30 02:38:00,60.1,54.9,-100.00,NNW,334,20.0,25.0,83,0.02,,,0.02,meteohub,2013-03-30 07:38:00,
2013-03-30 02:39:00,59.9,55.0,-100.00,NNW,337,19.0,25.0,84,0.02,,,0.02,meteohub,2013-03-30 07:39:00,
2013-03-30 02:42:00,59.0,54.9,-100.00,NNW,339,15.0,28.0,86,0.18,,,0.18,meteohub,2013-03-30 07:42:00,
2013-03-30 02:43:00,58.6,54.5,-100.00,NW,319,14.0,28.0,86,0.18,,,0.18,meteohub,2013-03-30 07:43:00,
2013-03-30 02:44:00,58.6,54.9,-100.00,NNW,331,9.0,28.0,87,0.18,,,0.18,meteohub,2013-03-30 07:44:00,
2013-03-30 02:45:00,58.6,54.9,-100.00,NNW,330,8.0,28.0,87,0.18,,,0.18,meteohub,2013-03-30 07:45:00,
2013-03-30 02:48:00,58.1,54.5,-100.00,NW,321,14.0,28.0,88,0.49,,,0.35,meteohub,2013-03-30 07:48:00,
2013-03-30 02:49:00,58.1,54.9,-100.00,NW,323,8.0,28.0,89,0.49,,,0.35,meteohub,2013-03-30 07:49:00,
2013-03-30 02:50:00,57.9,54.7,-100.00,NW,321,9.0,28.0,89,0.49,,,0.35,meteohub,2013-03-30 07:50:00,
2013-03-30 02:53:00,57.7,54.5,-100.00,NW,325,7.0,28.0,89,0.54,,,0.54,meteohub,2013-03-30 07:53:00,
2013-03-30 02:54:00,57.7,54.9,-100.00,NW,310,10.0,28.0,90,0.54,,,0.54,meteohub,2013-03-30 07:54:00,
2013-03-30 02:55:00,57.7,54.9,-100.00,NW,317,10.0,28.0,90,0.54,,,0.61,meteohub,2013-03-30 07:55:00,
2013-03-30 02:58:00,57.7,54.9,-100.00,WNW,287,4.0,23.0,90,0.61,,,0.61,meteohub,2013-03-30 07:58:00,
2013-03-30 03:00:00,57.7,54.9,-100.00,WNW,286,2.0,23.0,90,0.61,,,0.61,meteohub,2013-03-30 08:00:00,
2013-03-30 03:04:00,57.7,55.2,-100.00,WSW,237,3.0,18.0,91,0.69,,,0.61,meteohub,2013-03-30 08:04:00,
2013-03-30 03:05:00,57.7,55.2,-100.00,SW,228,7.0,18.0,91,0.69,,,0.61,meteohub,2013-03-30 08:05:00,
2013-03-30 03:09:00,57.7,55.4,-100.00,SW,223,7.0,17.0,92,0.74,,,0.74,meteohub,2013-03-30 08:09:00,
2013-03-30 03:10:00,57.7,55.4,-100.00,WSW,238,4.0,17.0,92,0.74,,,0.74,meteohub,2013-03-30 08:10:00,
2013-03-30 03:11:00,57.7,55.4,-100.00,WSW,246,3.0,17.0,92,0.74,,,0.82,meteohub,2013-03-30 08:11:00,
2013-03-30 03:15:00,57.7,55.4,-100.00,WSW,240,5.0,12.0,92,0.82,,,0.82,meteohub,2013-03-30 08:15:00,
2013-03-30 03:16:00,57.9,55.6,-100.00,WSW,239,3.0,12.0,92,0.86,,,0.83,meteohub,2013-03-30 08:16:00,
2013-03-30 03:17:00,57.9,55.6,-100.00,SW,235,4.0,11.0,92,0.86,,,0.83,meteohub,2013-03-30 08:17:00,
2013-03-30 03:20:00,57.9,55.6,-100.00,WSW,250,1.0,11.0,92,0.86,,,0.83,meteohub,2013-03-30 08:20:00,
2013-03-30 03:21:00,57.9,55.6,-100.00,WSW,253,4.0,11.0,92,0.87,,,0.87,meteohub,2013-03-30 08:21:00,
2013-03-30 03:22:00,57.9,55.6,-100.00,WSW,254,3.0,11.0,92,0.87,,,0.87,meteohub,2013-03-30 08:22:00,
2013-03-30 03:25:00,57.9,55.6,-100.00,WSW,253,0.0,11.0,92,0.87,,,0.87,meteohub,2013-03-30 08:25:00,
2013-03-30 03:26:00,57.9,55.6,-100.00,WSW,253,0.0,11.0,92,0.89,,,0.89,meteohub,2013-03-30 08:26:00,
2013-03-30 03:27:00,57.9,55.6,-100.00,WSW,253,0.0,11.0,92,0.89,,,0.89,meteohub,2013-03-30 08:27:00,
2013-03-30 03:30:00,57.9,55.9,-100.00,WSW,253,2.0,11.0,93,0.89,,,0.89,meteohub,2013-03-30 08:30:00,
2013-03-30 03:31:00,57.9,55.9,-100.00,WSW,252,4.0,11.0,93,0.92,,,0.89,meteohub,2013-03-30 08:31:00,
2013-03-30 03:32:00,57.9,55.9,-100.00,WSW,251,4.0,11.0,93,0.92,,,0.89,meteohub,2013-03-30 08:32:00,
2013-03-30 03:33:00,57.9,55.9,-100.00,WSW,249,3.0,11.0,93,0.92,,,0.89,meteohub,2013-03-30 08:33:00,
2013-03-30 03:35:00,57.9,55.9,-100.00,SW,236,7.0,11.0,93,0.92,,,0.92,meteohub,2013-03-30 08:35:00,
2013-03-30 03:37:00,57.7,55.8,-100.00,SW,227,5.0,7.0,93,0.84,,,0.92,meteohub,2013-03-30 08:37:00,
2013-03-30 03:38:00,57.7,55.8,-100.00,SW,227,3.0,7.0,93,0.84,,,0.92,meteohub,2013-03-30 08:38:00,
2013-03-30 03:40:00,57.7,55.8,-100.00,SW,227,6.0,7.0,93,0.84,,,0.93,meteohub,2013-03-30 08:40:00,
2013-03-30 03:42:00,57.7,55.8,-100.00,SW,225,5.0,10.0,93,0.71,,,0.93,meteohub,2013-03-30 08:42:00,
2013-03-30 03:43:00,57.7,55.8,-100.00,SW,226,5.0,10.0,93,0.71,,,0.93,meteohub,2013-03-30 08:43:00,
2013-03-30 03:46:00,57.7,55.8,-100.00,SW,226,3.0,10.0,93,0.44,,,0.94,meteohub,2013-03-30 08:46:00,
2013-03-30 03:47:00,57.7,55.8,-100.00,SW,226,4.0,10.0,93,0.44,,,0.94,meteohub,2013-03-30 08:47:00,
2013-03-30 03:48:00,57.7,55.8,-100.00,SW,225,5.0,10.0,93,0.44,,,0.94,meteohub,2013-03-30 08:48:00,
2013-03-30 03:51:00,57.7,55.8,-100.00,SW,225,3.0,10.0,93,0.39,,,0.95,meteohub,2013-03-30 08:51:00,
2013-03-30 03:52:00,57.7,55.8,-100.00,SW,225,5.0,10.0,93,0.39,,,0.95,meteohub,2013-03-30 08:52:00,
2013-03-30 03:53:00,57.7,55.8,-100.00,SW,225,3.0,10.0,93,0.39,,,0.95,meteohub,2013-03-30 08:53:00,
2013-03-30 03:54:00,57.7,55.9,-100.00,SW,225,5.0,10.0,94,0.39,,,0.95,meteohub,2013-03-30 08:54:00,
2013-03-30 03:56:00,57.7,55.9,-100.00,SW,224,6.0,9.0,94,0.33,,,0.95,meteohub,2013-03-30 08:56:00,
2013-03-30 03:57:00,57.6,55.8,-100.00,SW,224,4.0,9.0,94,0.33,,,0.95,meteohub,2013-03-30 08:57:00,
2013-03-30 03:58:00,57.6,55.8,-100.00,SW,224,6.0,9.0,94,0.33,,,0.95,meteohub,2013-03-30 08:58:00,
2013-03-30 03:59:00,57.6,55.8,-100.00,SW,223,6.0,9.0,94,0.33,,,0.95,meteohub,2013-03-30 08:59:00,
2013-03-30 04:02:00,57.6,55.8,-100.00,SW,228,3.0,9.0,94,0.26,,,0.95,meteohub,2013-03-30 09:02:00,
2013-03-30 04:03:00,57.6,55.8,-100.00,SW,229,3.0,9.0,94,0.26,,,0.95,meteohub,2013-03-30 09:03:00,
2013-03-30 04:04:00,57.6,55.8,-100.00,SW,228,6.0,9.0,94,0.26,,,0.95,meteohub,2013-03-30 09:04:00,
2013-03-30 04:07:00,57.4,55.6,-100.00,SW,231,2.0,9.0,94,0.19,,,0.96,meteohub,2013-03-30 09:07:00,
2013-03-30 04:08:00,57.2,55.4,-100.00,SW,231,1.0,9.0,94,0.19,,,0.96,meteohub,2013-03-30 09:08:00,
2013-03-30 04:09:00,57.2,55.4,-100.00,SW,231,0.0,9.0,94,0.19,,,0.96,meteohub,2013-03-30 09:09:00,
2013-03-30 04:10:00,57.2,55.4,-100.00,SW,231,3.0,9.0,94,0.19,,,0.96,meteohub,2013-03-30 09:10:00,
2013-03-30 04:12:00,57.0,55.2,-100.00,SW,231,4.0,9.0,94,0.14,,,0.96,meteohub,2013-03-30 09:12:00,
2013-03-30 04:14:00,57.0,55.2,-100.00,SW,232,0.0,9.0,94,0.14,,,0.96,meteohub,2013-03-30 09:14:00,
2013-03-30 04:16:00,56.8,55.2,-100.00,SW,232,1.0,9.0,94,0.10,,,0.96,meteohub,2013-03-30 09:16:00,
2013-03-30 04:17:00,56.8,55.2,-100.00,SW,232,0.0,9.0,94,0.10,,,0.96,meteohub,2013-03-30 09:17:00,
2013-03-30 04:19:00,56.8,55.2,-100.00,SW,231,0.0,9.0,94,0.10,,,0.96,meteohub,2013-03-30 09:19:00,
2013-03-30 04:22:00,56.7,55.0,-100.00,SW,231,0.0,5.0,94,0.09,,,0.96,meteohub,2013-03-30 09:22:00,
2013-03-30 04:24:00,56.7,55.0,-100.00,SW,231,2.0,5.0,94,0.09,,,0.96,meteohub,2013-03-30 09:24:00,
2013-03-30 04:25:00,56.7,55.0,-100.00,SW,231,2.0,5.0,94,0.09,,,0.96,meteohub,2013-03-30 09:25:00,
2013-03-30 04:27:00,56.7,55.0,-100.00,SW,231,0.0,5.0,94,0.06,,,0.96,meteohub,2013-03-30 09:27:00,
2013-03-30 04:28:00,56.7,55.0,-100.00,SW,231,1.0,5.0,94,0.06,,,0.96,meteohub,2013-03-30 09:28:00,
2013-03-30 04:29:00,56.7,55.0,-100.00,SW,231,0.0,5.0,94,0.06,,,0.96,meteohub,2013-03-30 09:29:00,
2013-03-30 04:30:00,56.7,55.0,-100.00,SW,231,0.0,5.0,94,0.06,,,0.96,meteohub,2013-03-30 09:30:00,
2013-03-30 04:33:00,56.5,54.9,-100.00,SW,231,0.0,5.0,94,0.04,,,0.96,meteohub,2013-03-30 09:33:00,
2013-03-30 04:34:00,56.5,54.9,-100.00,SW,231,0.0,5.0,94,0.04,,,0.96,meteohub,2013-03-30 09:34:00,
2013-03-30 04:38:00,56.5,54.9,-100.00,SW,231,0.0,4.0,94,0.03,,,0.96,meteohub,2013-03-30 09:38:00,
2013-03-30 04:39:00,56.5,54.9,-100.00,SW,231,0.0,4.0,94,0.03,,,0.96,meteohub,2013-03-30 09:39:00,
2013-03-30 04:43:00,56.5,54.9,-100.00,SW,231,0.0,3.0,94,0.02,,,0.96,meteohub,2013-03-30 09:43:00,
2013-03-30 04:44:00,56.5,54.9,-100.00,SW,231,0.0,3.0,94,0.02,,,0.96,meteohub,2013-03-30 09:44:00,
2013-03-30 04:49:00,56.3,54.7,-100.00,SW,231,2.0,2.0,94,0.02,,,0.96,meteohub,2013-03-30 09:49:00,
2013-03-30 04:50:00,56.3,54.7,-100.00,SW,231,2.0,2.0,94,0.02,,,0.96,meteohub,2013-03-30 09:50:00,
2013-03-30 04:54:00,56.3,54.7,-100.00,SW,231,0.0,3.0,94,0.01,,,0.96,meteohub,2013-03-30 09:54:00,
2013-03-30 04:55:00,56.3,54.7,-100.00,SW,231,0.0,3.0,94,0.01,,,0.96,meteohub,2013-03-30 09:55:00,
2013-03-30 04:57:00,56.3,54.7,-100.00,SW,231,0.0,3.0,94,0.01,,,0.96,meteohub,2013-03-30 09:57:00,
2013-03-30 05:00:00,56.3,54.9,-100.00,SW,231,0.0,3.0,95,0.01,,,0.96,meteohub,2013-03-30 10:00:00,
2013-03-30 05:02:00,56.3,54.9,-100.00,SW,231,0.0,3.0,95,0.01,,,0.96,meteohub,2013-03-30 10:02:00,
2013-03-30 05:05:00,56.3,54.9,-100.00,SW,231,0.0,3.0,95,0.00,,,0.96,meteohub,2013-03-30 10:05:00,
2013-03-30 05:06:00,56.3,54.9,-100.00,SW,231,1.0,3.0,95,0.00,,,0.96,meteohub,2013-03-30 10:06:00,
2013-03-30 05:07:00,56.1,54.7,-100.00,SW,231,1.0,3.0,95,0.00,,,0.96,meteohub,2013-03-30 10:07:00,
2013-03-30 05:11:00,56.1,54.7,-100.00,SW,231,0.0,3.0,95,0.00,,,0.96,meteohub,2013-03-30 10:11:00,
2013-03-30 05:12:00,56.1,54.7,-100.00,SW,231,0.0,3.0,95,0.00,,,0.96,meteohub,2013-03-30 10:12:00,
2013-03-30 05:13:00,55.9,54.5,-100.00,SW,231,0.0,3.0,95,0.00,,,0.96,meteohub,2013-03-30 10:13:00,
2013-03-30 05:17:00,55.9,54.5,-100.00,SW,231,0.0,2.0,95,0.00,,,0.96,meteohub,2013-03-30 10:17:00,
2013-03-30 05:18:00,55.9,54.5,-100.00,SW,231,0.0,2.0,95,0.00,,,0.96,meteohub,2013-03-30 10:18:00,
2013-03-30 05:19:00,55.9,54.5,-100.00,SW,231,0.0,2.0,95,0.00,,,0.96,meteohub,2013-03-30 10:19:00,
2013-03-30 05:22:00,55.9,54.5,-100.00,SW,231,2.0,2.0,95,0.00,,,0.96,meteohub,2013-03-30 10:22:00,
2013-03-30 05:23:00,55.9,54.5,-100.00,SW,231,3.0,3.0,95,0.00,,,0.96,meteohub,2013-03-30 10:23:00,
2013-03-30 05:24:00,55.9,54.5,-100.00,SW,231,3.0,3.0,95,0.00,,,0.96,meteohub,2013-03-30 10:24:00,
2013-03-30 05:27:00,55.8,54.3,-100.00,SW,231,3.0,3.0,95,0.00,,,0.96,meteohub,2013-03-30 10:27:00,
2013-03-30 05:28:00,55.8,54.3,-100.00,SW,231,1.0,3.0,95,0.00,,,0.96,meteohub,2013-03-30 10:28:00,
2013-03-30 05:29:00,55.8,54.3,-100.00,SW,231,1.0,3.0,95,0.00,,,0.96,meteohub,2013-03-30 10:29:00,
2013-03-30 05:32:00,55.6,54.1,-100.00,SW,230,3.0,3.0,95,0.00,,,0.96,meteohub,2013-03-30 10:32:00,
2013-03-30 05:33:00,55.6,54.1,-100.00,SW,231,0.0,5.0,95,0.00,,,0.96,meteohub,2013-03-30 10:33:00,
2013-03-30 05:34:00,55.6,54.1,-100.00,SW,230,2.0,5.0,95,0.00,,,0.96,meteohub,2013-03-30 10:34:00,
2013-03-30 05:38:00,55.6,54.1,-100.00,SW,230,2.0,5.0,95,0.00,,,0.96,meteohub,2013-03-30 10:38:00,
2013-03-30 05:39:00,55.6,54.1,-100.00,SW,231,2.0,5.0,95,0.00,,,0.96,meteohub,2013-03-30 10:39:00,
2013-03-30 05:43:00,55.6,54.1,-100.00,SW,230,3.0,5.0,95,0.00,,,0.96,meteohub,2013-03-30 10:43:00,
2013-03-30 05:44:00,55.4,54.0,-100.00,SW,230,6.0,6.0,95,0.00,,,0.96,meteohub,2013-03-30 10:44:00,
2013-03-30 05:48:00,55.4,54.0,-100.00,SW,225,6.0,6.0,95,0.00,,,0.96,meteohub,2013-03-30 10:48:00,
2013-03-30 05:50:00,55.6,54.1,-100.00,SW,218,9.0,9.0,95,0.00,,,0.96,meteohub,2013-03-30 10:50:00,
2013-03-30 05:53:00,55.6,54.1,-100.00,SW,215,8.0,8.0,95,0.00,,,0.96,meteohub,2013-03-30 10:53:00,
2013-03-30 05:55:00,55.6,54.1,-100.00,SSW,211,8.0,12.0,95,0.00,,,0.96,meteohub,2013-03-30 10:55:00,
2013-03-30 05:58:00,55.6,54.1,-100.00,SSW,211,2.0,12.0,95,0.00,,,0.96,meteohub,2013-03-30 10:58:00,
2013-03-30 06:01:00,55.6,54.1,-100.00,SSW,211,2.0,12.0,95,0.00,,,0.96,meteohub,2013-03-30 11:01:00,
2013-03-30 06:03:00,55.6,54.1,-100.00,SSW,211,1.0,12.0,95,0.00,,,0.96,meteohub,2013-03-30 11:03:00,
2013-03-30 06:04:00,55.6,54.1,-100.00,SSW,211,1.0,12.0,95,0.00,,,0.96,meteohub,2013-03-30 11:04:00,
2013-03-30 06:06:00,55.6,54.1,-100.00,SSW,211,1.0,12.0,95,0.00,,,0.96,meteohub,2013-03-30 11:06:00,
2013-03-30 06:08:00,55.4,54.0,-100.00,SSW,211,1.0,12.0,95,0.00,,,0.96,meteohub,2013-03-30 11:08:00,
2013-03-30 06:09:00,55.4,54.0,-100.00,SSW,211,3.0,12.0,95,0.00,,,0.96,meteohub,2013-03-30 11:09:00,
2013-03-30 06:10:00,55.4,54.0,-100.00,SSW,211,3.0,12.0,95,0.00,,,0.96,meteohub,2013-03-30 11:10:00,
2013-03-30 06:12:00,55.2,53.8,-100.00,SSW,211,1.0,12.0,95,0.00,,,0.96,meteohub,2013-03-30 11:12:00,
2013-03-30 06:14:00,55.2,53.8,-100.00,SSW,211,2.0,5.0,95,0.00,,,0.96,meteohub,2013-03-30 11:14:00,
2013-03-30 06:15:00,55.2,53.8,-100.00,SSW,211,3.0,5.0,95,0.00,,,0.96,meteohub,2013-03-30 11:15:00,
2013-03-30 06:17:00,55.0,53.6,-100.00,SSW,211,4.0,5.0,95,0.00,,,0.96,meteohub,2013-03-30 11:17:00,
2013-03-30 06:19:00,55.0,53.6,-100.00,SSW,211,3.0,5.0,95,0.00,,,0.96,meteohub,2013-03-30 11:19:00,
2013-03-30 06:20:00,55.0,53.6,-100.00,SSW,211,3.0,5.0,95,0.00,,,0.96,meteohub,2013-03-30 11:20:00,
2013-03-30 06:21:00,55.0,53.6,-100.00,SSW,211,4.0,5.0,95,0.00,,,0.96,meteohub,2013-03-30 11:21:00,
2013-03-30 06:22:00,55.0,53.6,-100.00,SSW,211,9.0,9.0,95,0.00,,,0.96,meteohub,2013-03-30 11:22:00,
2013-03-30 06:24:00,55.0,53.6,-100.00,SSW,212,6.0,6.0,95,0.00,,,0.96,meteohub,2013-03-30 11:24:00,
2013-03-30 06:25:00,55.0,53.6,-100.00,SSW,213,7.0,10.0,95,0.00,,,0.96,meteohub,2013-03-30 11:25:00,
2013-03-30 06:27:00,55.0,54.0,-100.00,SSW,211,7.0,10.0,96,0.00,,,0.96,meteohub,2013-03-30 11:27:00,
2013-03-30 06:28:00,55.0,54.0,-100.00,SSW,211,4.0,10.0,96,0.00,,,0.96,meteohub,2013-03-30 11:28:00,
2013-03-30 06:29:00,55.0,54.0,-100.00,SSW,211,3.0,10.0,96,0.00,,,0.96,meteohub,2013-03-30 11:29:00,
2013-03-30 06:30:00,55.0,54.0,-100.00,SSW,211,2.0,10.0,96,0.00,,,0.96,meteohub,2013-03-30 11:30:00,
2013-03-30 06:32:00,55.0,54.0,-100.00,SSW,211,3.0,10.0,96,0.00,,,0.96,meteohub,2013-03-30 11:32:00,
2013-03-30 06:33:00,55.0,54.0,-100.00,SSW,211,2.0,10.0,96,0.00,,,0.96,meteohub,2013-03-30 11:33:00,
2013-03-30 06:34:00,55.0,54.0,-100.00,SSW,211,2.0,10.0,96,0.00,,,0.96,meteohub,2013-03-30 11:34:00,
2013-03-30 06:35:00,55.0,54.0,-100.00,SSW,211,5.0,10.0,96,0.00,,,0.96,meteohub,2013-03-30 11:35:00,
2013-03-30 06:37:00,55.0,54.0,-100.00,SSW,211,2.0,10.0,96,0.00,,,0.96,meteohub,2013-03-30 11:37:00,
2013-03-30 06:39:00,55.0,54.0,-100.00,SSW,211,4.0,10.0,96,0.00,,,0.96,meteohub,2013-03-30 11:39:00,
2013-03-30 06:41:00,55.0,54.0,-100.00,SSW,211,3.0,10.0,96,0.00,,,0.96,meteohub,2013-03-30 11:41:00,
2013-03-30 06:42:00,55.0,54.0,-100.00,SSW,211,2.0,10.0,96,0.00,,,0.96,meteohub,2013-03-30 11:42:00,
2013-03-30 06:44:00,54.9,53.8,-100.00,SSW,211,2.0,10.0,96,0.00,,,0.96,meteohub,2013-03-30 11:44:00,
2013-03-30 06:46:00,55.0,54.0,-100.00,SSW,211,2.0,5.0,96,0.00,,,0.96,meteohub,2013-03-30 11:46:00,
2013-03-30 06:47:00,55.0,54.0,-100.00,SSW,211,1.0,5.0,96,0.00,,,0.96,meteohub,2013-03-30 11:47:00,
2013-03-30 06:49:00,55.0,54.0,-100.00,SSW,211,3.0,5.0,96,0.00,,,0.96,meteohub,2013-03-30 11:49:00,
2013-03-30 06:52:00,55.0,54.0,-100.00,SSW,211,3.0,4.0,96,0.00,,,0.96,meteohub,2013-03-30 11:52:00,
2013-03-30 06:54:00,55.0,54.0,-100.00,SSW,211,1.0,4.0,96,0.00,,,0.96,meteohub,2013-03-30 11:54:00,
2013-03-30 06:55:00,55.0,54.0,-100.00,SSW,211,3.0,4.0,96,0.00,,,0.96,meteohub,2013-03-30 11:55:00,
2013-03-30 06:57:00,55.0,54.0,-100.00,SSW,211,1.0,5.0,96,0.00,,,0.96,meteohub,2013-03-30 11:57:00,
2013-03-30 06:59:00,55.0,54.0,-100.00,SSW,211,2.0,5.0,96,0.00,,,0.96,meteohub,2013-03-30 11:59:00,
2013-03-30 07:00:00,55.0,54.0,-100.00,SSW,211,2.0,5.0,96,0.00,,,0.96,meteohub,2013-03-30 12:00:00,
2013-03-30 07:02:00,55.0,54.0,-100.00,SSW,211,2.0,5.0,96,0.01,,,0.97,meteohub,2013-03-30 12:02:00,
2013-03-30 07:04:00,55.0,54.0,-100.00,SSW,211,1.0,5.0,96,0.01,,,0.97,meteohub,2013-03-30 12:04:00,
2013-03-30 07:05:00,55.0,54.0,-100.00,SSW,211,3.0,5.0,96,0.01,,,0.97,meteohub,2013-03-30 12:05:00,
2013-03-30 07:07:00,55.0,54.0,-100.00,SSW,211,2.0,5.0,96,0.01,,,0.97,meteohub,2013-03-30 12:07:00,
2013-03-30 07:10:00,55.0,54.0,-100.00,SSW,211,1.0,5.0,96,0.01,,,0.97,meteohub,2013-03-30 12:10:00,
2013-03-30 07:11:00,55.0,54.0,-100.00,SSW,211,2.0,5.0,96,0.01,,,0.97,meteohub,2013-03-30 12:11:00,
2013-03-30 07:13:00,55.0,54.0,-100.00,SSW,211,3.0,5.0,96,0.01,,,0.97,meteohub,2013-03-30 12:13:00,
2013-03-30 07:16:00,55.0,54.0,-100.00,SSW,211,3.0,5.0,96,0.01,,,0.97,meteohub,2013-03-30 12:16:00,
2013-03-30 07:18:00,55.0,54.0,-100.00,SSW,211,2.0,4.0,96,0.01,,,0.97,meteohub,2013-03-30 12:18:00,
2013-03-30 07:21:00,54.9,53.8,-100.00,SSW,211,3.0,5.0,96,0.01,,,0.97,meteohub,2013-03-30 12:21:00,
2013-03-30 07:24:00,54.9,53.8,-100.00,SSW,211,2.0,5.0,96,0.01,,,0.97,meteohub,2013-03-30 12:24:00,
2013-03-30 07:26:00,54.9,53.8,-100.00,SSW,211,3.0,5.0,96,0.01,,,0.97,meteohub,2013-03-30 12:26:00,
2013-03-30 07:27:00,54.9,53.8,-100.00,SSW,211,3.0,5.0,96,0.01,,,0.97,meteohub,2013-03-30 12:27:00,
2013-03-30 07:28:00,54.9,53.8,-100.00,SSW,211,3.0,5.0,96,0.01,,,0.97,meteohub,2013-03-30 12:28:00,
2013-03-30 07:33:00,54.9,53.8,-100.00,SSW,211,3.0,5.0,96,0.01,,,0.97,meteohub,2013-03-30 12:33:00,
2013-03-30 07:38:00,54.9,53.8,-100.00,SSW,211,4.0,4.0,96,0.01,,,0.97,meteohub,2013-03-30 12:38:00,
2013-03-30 07:39:00,54.9,53.8,-100.00,SSW,211,3.0,4.0,96,0.01,,,0.97,meteohub,2013-03-30 12:39:00,
2013-03-30 07:43:00,55.0,54.0,-100.00,SSW,211,2.0,5.0,96,0.01,,,0.97,meteohub,2013-03-30 12:43:00,
2013-03-30 07:44:00,55.0,54.0,-100.00,SSW,211,3.0,5.0,96,0.01,,,0.97,meteohub,2013-03-30 12:44:00,
2013-03-30 07:48:00,55.2,54.1,-100.00,SSW,211,2.0,5.0,96,0.01,,,0.97,meteohub,2013-03-30 12:48:00,
2013-03-30 07:49:00,55.2,54.1,-100.00,SSW,211,3.0,5.0,96,0.01,,,0.97,meteohub,2013-03-30 12:49:00,
2013-03-30 07:50:00,55.2,54.1,-100.00,SSW,211,3.0,5.0,96,0.01,,,0.97,meteohub,2013-03-30 12:50:00,
2013-03-30 07:54:00,55.6,54.5,-100.00,SSW,211,2.0,5.0,96,0.01,,,0.97,meteohub,2013-03-30 12:54:00,
2013-03-30 07:55:00,55.6,54.5,-100.00,SSW,211,2.0,5.0,96,0.01,,,0.97,meteohub,2013-03-30 12:55:00,
2013-03-30 07:59:00,55.8,54.7,-100.00,SSW,211,1.0,5.0,96,0.00,,,0.97,meteohub,2013-03-30 12:59:00,
2013-03-30 08:00:00,55.8,54.7,-100.00,SSW,211,2.0,5.0,96,0.00,,,0.97,meteohub,2013-03-30 13:00:00,
2013-03-30 08:04:00,55.9,54.9,-100.00,SSW,211,3.0,5.0,96,0.00,,,0.97,meteohub,2013-03-30 13:04:00,
2013-03-30 08:05:00,55.9,54.9,-100.00,SSW,211,2.0,5.0,96,0.00,,,0.97,meteohub,2013-03-30 13:05:00,
2013-03-30 08:09:00,55.9,54.9,-100.00,SSW,211,6.0,6.0,96,0.00,,,0.97,meteohub,2013-03-30 13:09:00,
2013-03-30 08:10:00,55.9,54.9,-100.00,SSW,211,6.0,6.0,96,0.00,,,0.97,meteohub,2013-03-30 13:10:00,
2013-03-30 08:14:00,56.3,55.2,-100.00,SSW,207,3.0,7.0,96,0.00,,,0.97,meteohub,2013-03-30 13:14:00,
2013-03-30 08:15:00,56.5,55.4,-100.00,SSW,206,6.0,7.0,96,0.00,,,0.97,meteohub,2013-03-30 13:15:00,
2013-03-30 08:20:00,56.7,55.6,-100.00,SSW,197,4.0,7.0,96,0.00,,,0.97,meteohub,2013-03-30 13:20:00,
2013-03-30 08:21:00,56.7,55.6,-100.00,SSW,196,6.0,9.0,96,0.00,,,0.97,meteohub,2013-03-30 13:21:00,
2013-03-30 08:25:00,56.8,55.8,-100.00,SSW,196,3.0,9.0,96,0.00,,,0.97,meteohub,2013-03-30 13:25:00,
2013-03-30 08:26:00,56.8,55.8,-100.00,SSW,196,3.0,9.0,96,0.00,,,0.97,meteohub,2013-03-30 13:26:00,
2013-03-30 08:27:00,56.8,55.8,-100.00,SSW,196,4.0,9.0,96,0.00,,,0.97,meteohub,2013-03-30 13:27:00,
2013-03-30 08:30:00,57.0,55.9,-100.00,SSW,196,4.0,9.0,96,0.00,,,0.97,meteohub,2013-03-30 13:30:00,
2013-03-30 08:32:00,57.0,55.9,-100.00,SSW,196,5.0,9.0,96,0.00,,,0.97,meteohub,2013-03-30 13:32:00,
2013-03-30 08:33:00,57.0,55.9,-100.00,SSW,196,2.0,9.0,96,0.00,,,0.97,meteohub,2013-03-30 13:33:00,
2013-03-30 08:36:00,57.2,56.1,-100.00,SSW,196,5.0,9.0,96,0.00,,,0.97,meteohub,2013-03-30 13:36:00,
2013-03-30 08:37:00,57.4,56.3,-100.00,SSW,196,3.0,7.0,96,0.00,,,0.97,meteohub,2013-03-30 13:37:00,
2013-03-30 08:38:00,57.6,56.5,-100.00,SSW,196,3.0,7.0,96,0.00,,,0.97,meteohub,2013-03-30 13:38:00,
2013-03-30 08:41:00,57.6,56.5,-100.00,SSW,196,3.0,6.0,96,0.00,,,0.97,meteohub,2013-03-30 13:41:00,
2013-03-30 08:42:00,57.6,56.5,-100.00,SSW,196,2.0,6.0,96,0.00,,,0.97,meteohub,2013-03-30 13:42:00,
2013-03-30 08:44:00,57.7,56.7,-100.00,SSW,196,5.0,6.0,96,0.00,,,0.97,meteohub,2013-03-30 13:44:00,
2013-03-30 08:47:00,58.3,57.2,-100.00,SSW,196,2.0,6.0,96,0.00,,,0.97,meteohub,2013-03-30 13:47:00,
2013-03-30 08:49:00,58.5,57.4,-100.00,SSW,196,3.0,6.0,96,0.00,,,0.97,meteohub,2013-03-30 13:49:00,
2013-03-30 08:52:00,58.6,57.6,-100.00,SSW,196,4.0,6.0,96,0.00,,,0.97,meteohub,2013-03-30 13:52:00,
2013-03-30 08:53:00,58.6,57.6,-100.00,SSW,196,5.0,6.0,96,0.00,,,0.97,meteohub,2013-03-30 13:53:00,
2013-03-30 08:54:00,58.8,57.7,-100.00,SSW,196,3.0,6.0,96,0.00,,,0.97,meteohub,2013-03-30 13:54:00,
2013-03-30 08:57:00,59.2,58.1,-100.00,South,177,9.0,9.0,96,0.00,,,0.97,meteohub,2013-03-30 13:57:00,
2013-03-30 08:58:00,59.2,58.1,-100.00,South,177,5.0,7.0,96,0.00,,,0.97,meteohub,2013-03-30 13:58:00,
2013-03-30 08:59:00,59.2,58.1,-100.00,South,176,3.0,7.0,96,0.00,,,0.97,meteohub,2013-03-30 13:59:00,
2013-03-30 09:02:00,59.5,58.5,-100.00,South,172,3.0,11.0,96,0.00,,,0.97,meteohub,2013-03-30 14:02:00,
2013-03-30 09:03:00,59.5,58.5,-100.00,South,172,4.0,11.0,96,0.00,,,0.97,meteohub,2013-03-30 14:03:00,
2013-03-30 09:04:00,59.5,58.5,-100.00,South,172,4.0,11.0,96,0.00,,,0.97,meteohub,2013-03-30 14:04:00,
2013-03-30 09:07:00,59.5,58.5,-100.00,South,172,3.0,11.0,96,0.00,,,0.97,meteohub,2013-03-30 14:07:00,
2013-03-30 09:08:00,59.5,58.5,-100.00,South,173,6.0,11.0,96,0.00,,,0.97,meteohub,2013-03-30 14:08:00,
2013-03-30 09:09:00,59.5,58.5,-100.00,South,173,3.0,11.0,96,0.00,,,0.97,meteohub,2013-03-30 14:09:00,
2013-03-30 09:13:00,59.7,58.6,-100.00,South,171,6.0,11.0,96,0.00,,,0.97,meteohub,2013-03-30 14:13:00,
2013-03-30 09:14:00,59.7,58.6,-100.00,South,170,6.0,11.0,96,0.00,,,0.97,meteohub,2013-03-30 14:14:00,
2013-03-30 09:18:00,60.3,59.2,-100.00,SSE,168,3.0,12.0,96,0.00,,,0.97,meteohub,2013-03-30 14:18:00,
2013-03-30 09:19:00,60.4,59.4,-100.00,SSE,167,5.0,12.0,96,0.00,,,0.97,meteohub,2013-03-30 14:19:00,
2013-03-30 09:23:00,60.6,59.5,-100.00,SSE,160,4.0,12.0,96,0.00,,,0.97,meteohub,2013-03-30 14:23:00,
2013-03-30 09:24:00,60.6,59.5,-100.00,SSE,160,6.0,12.0,96,0.00,,,0.97,meteohub,2013-03-30 14:24:00,
2013-03-30 09:25:00,61.0,59.9,-100.00,SSE,160,8.0,12.0,96,0.00,,,0.97,meteohub,2013-03-30 14:25:00,
2013-03-30 09:29:00,60.6,59.2,-100.00,SSE,150,5.0,10.0,95,0.00,,,0.97,meteohub,2013-03-30 14:29:00,
2013-03-30 09:30:00,60.6,59.2,-100.00,SSE,149,4.0,10.0,95,0.00,,,0.97,meteohub,2013-03-30 14:30:00,
2013-03-30 09:34:00,61.0,59.5,-100.00,SSE,150,5.0,11.0,95,0.00,,,0.97,meteohub,2013-03-30 14:34:00,
2013-03-30 09:35:00,61.0,59.5,-100.00,SSE,150,4.0,11.0,95,0.00,,,0.97,meteohub,2013-03-30 14:35:00,
2013-03-30 09:39:00,61.0,59.5,-100.00,SSE,155,7.0,11.0,95,0.00,,,0.97,meteohub,2013-03-30 14:39:00,
2013-03-30 09:40:00,61.0,59.5,-100.00,SSE,155,3.0,11.0,95,0.00,,,0.97,meteohub,2013-03-30 14:40:00,
2013-03-30 09:44:00,61.3,59.5,-100.00,SSE,157,4.0,11.0,94,0.00,,,0.97,meteohub,2013-03-30 14:44:00,
2013-03-30 09:45:00,61.3,59.5,-100.00,SSE,157,5.0,11.0,94,0.00,,,0.97,meteohub,2013-03-30 14:45:00,
2013-03-30 09:50:00,61.5,59.7,-100.00,SSE,163,3.0,10.0,94,0.00,,,0.97,meteohub,2013-03-30 14:50:00,
2013-03-30 09:51:00,61.5,59.7,-100.00,SSE,163,3.0,10.0,94,0.00,,,0.97,meteohub,2013-03-30 14:51:00,
2013-03-30 09:55:00,61.9,60.1,-100.00,SSE,165,7.0,10.0,94,0.00,,,0.97,meteohub,2013-03-30 14:55:00,
2013-03-30 09:56:00,61.9,60.1,-100.00,SSE,165,5.0,10.0,94,0.00,,,0.97,meteohub,2013-03-30 14:56:00,
2013-03-30 09:57:00,61.9,60.1,-100.00,SSE,165,5.0,10.0,94,0.00,,,0.97,meteohub,2013-03-30 14:57:00,
2013-03-30 10:00:00,62.1,60.1,-100.00,SSE,165,2.0,10.0,93,0.00,,,0.97,meteohub,2013-03-30 15:00:00,
2013-03-30 10:01:00,62.1,60.1,-100.00,SSE,165,6.0,10.0,93,0.00,,,0.97,meteohub,2013-03-30 15:01:00,
2013-03-30 10:03:00,62.2,60.3,-100.00,South,184,7.0,10.0,93,0.00,,,0.97,meteohub,2013-03-30 15:03:00,
2013-03-30 10:06:00,62.6,60.6,-100.00,South,185,4.0,10.0,93,0.00,,,0.97,meteohub,2013-03-30 15:06:00,
2013-03-30 10:07:00,62.8,60.8,-100.00,South,183,8.0,11.0,93,0.00,,,0.97,meteohub,2013-03-30 15:07:00,
2013-03-30 10:09:00,63.0,61.0,-100.00,South,189,10.0,11.0,93,0.00,,,0.97,meteohub,2013-03-30 15:09:00,
2013-03-30 10:11:00,63.1,60.8,-100.00,SSW,198,11.0,11.0,92,0.00,,,0.97,meteohub,2013-03-30 15:11:00,
2013-03-30 10:12:00,63.1,60.8,-100.00,SSW,202,13.0,14.0,92,0.00,,,0.97,meteohub,2013-03-30 15:12:00,
2013-03-30 10:14:00,63.3,61.0,-100.00,SSW,209,6.0,14.0,92,0.00,,,0.97,meteohub,2013-03-30 15:14:00,
2013-03-30 10:17:00,63.9,61.5,-100.00,SSW,212,14.0,15.0,92,0.00,,,0.97,meteohub,2013-03-30 15:17:00,
2013-03-30 10:18:00,63.9,61.2,-100.00,South,187,7.0,15.0,91,0.00,,,0.97,meteohub,2013-03-30 15:18:00,
2013-03-30 10:19:00,64.0,61.3,-100.00,South,187,14.0,15.0,91,0.00,,,0.97,meteohub,2013-03-30 15:19:00,
2013-03-30 10:22:00,64.2,61.2,-100.00,SSW,194,7.0,17.0,90,0.00,,,0.97,meteohub,2013-03-30 15:22:00,
2013-03-30 10:23:00,64.2,61.2,-100.00,SSW,209,8.0,17.0,90,0.00,,,0.97,meteohub,2013-03-30 15:23:00,
2013-03-30 10:24:00,64.6,61.5,-100.00,SSW,195,12.0,17.0,90,0.00,,,0.97,meteohub,2013-03-30 15:24:00,
2013-03-30 10:27:00,64.8,61.5,-100.00,SSW,205,12.0,17.0,89,0.00,,,0.97,meteohub,2013-03-30 15:27:00,
2013-03-30 10:28:00,64.9,61.3,-100.00,SSW,200,11.0,17.0,88,0.00,,,0.97,meteohub,2013-03-30 15:28:00,
2013-03-30 10:29:00,64.9,61.0,-100.00,SW,222,12.0,17.0,87,0.00,,,0.97,meteohub,2013-03-30 15:29:00,
2013-03-30 10:32:00,65.1,60.8,-100.00,SSW,203,15.0,20.0,86,0.00,,,0.97,meteohub,2013-03-30 15:32:00,
2013-03-30 10:33:00,65.3,61.0,-100.00,SSW,194,9.0,20.0,86,0.00,,,0.97,meteohub,2013-03-30 15:33:00,
2013-03-30 10:34:00,65.3,61.0,-100.00,SSW,205,16.0,20.0,86,0.00,,,0.97,meteohub,2013-03-30 15:34:00,
2013-03-30 10:37:00,65.5,60.8,-100.00,SSW,198,11.0,20.0,85,0.00,,,0.97,meteohub,2013-03-30 15:37:00,
2013-03-30 10:39:00,65.7,60.6,-100.00,SSW,212,12.0,20.0,84,0.00,,,0.97,meteohub,2013-03-30 15:39:00,
2013-03-30 10:40:00,65.7,60.6,-100.00,SSW,206,13.0,20.0,84,0.00,,,0.97,meteohub,2013-03-30 15:40:00,
2013-03-30 10:42:00,65.8,60.6,-100.00,SSW,207,13.0,20.0,83,0.00,,,0.97,meteohub,2013-03-30 15:42:00,
2013-03-30 10:45:00,65.8,60.3,-100.00,SSW,210,12.0,20.0,82,0.00,,,0.97,meteohub,2013-03-30 15:45:00,
2013-03-30 10:47:00,65.8,60.3,-100.00,SW,234,13.0,21.0,82,0.00,,,0.97,meteohub,2013-03-30 15:47:00,
2013-03-30 10:48:00,65.8,60.3,-100.00,SW,217,7.0,21.0,82,0.00,,,0.97,meteohub,2013-03-30 15:48:00,
2013-03-30 10:50:00,66.0,60.4,-100.00,SW,217,16.0,21.0,82,0.00,,,0.97,meteohub,2013-03-30 15:50:00,
2013-03-30 10:51:00,66.0,60.1,-100.00,SW,220,17.0,21.0,81,0.00,,,0.97,meteohub,2013-03-30 15:51:00,
2013-03-30 10:53:00,66.0,60.1,-100.00,SW,215,9.0,21.0,81,0.00,,,0.97,meteohub,2013-03-30 15:53:00,
2013-03-30 10:55:00,66.0,60.1,-100.00,SSW,209,10.0,21.0,81,0.00,,,0.97,meteohub,2013-03-30 15:55:00,
2013-03-30 10:58:00,66.0,59.7,-100.00,SSW,199,16.0,21.0,80,0.00,,,0.97,meteohub,2013-03-30 15:58:00,
2013-03-30 10:59:00,66.4,60.1,-100.00,SSW,205,16.0,21.0,80,0.00,,,0.97,meteohub,2013-03-30 15:59:00,
2013-03-30 11:00:00,66.4,60.1,-100.00,SSW,197,12.0,21.0,80,0.00,,,0.97,meteohub,2013-03-30 16:00:00,
2013-03-30 11:03:00,66.7,60.8,-100.00,SW,228,18.0,22.0,81,0.00,,,0.97,meteohub,2013-03-30 16:03:00,
2013-03-30 11:04:00,66.7,60.4,-100.00,SW,219,17.0,22.0,80,0.00,,,0.97,meteohub,2013-03-30 16:04:00,
2013-03-30 11:05:00,66.7,60.1,-100.00,SW,229,11.0,22.0,79,0.00,,,0.97,meteohub,2013-03-30 16:05:00,
2013-03-30 11:08:00,67.1,60.8,-100.00,SW,225,15.0,22.0,80,0.00,,,0.97,meteohub,2013-03-30 16:08:00,
2013-03-30 11:10:00,67.1,60.1,-100.00,SSW,208,13.0,22.0,78,0.00,,,0.97,meteohub,2013-03-30 16:10:00,
2013-03-30 11:13:00,67.1,60.4,-100.00,SSW,208,11.0,22.0,79,0.00,,,0.97,meteohub,2013-03-30 16:13:00,
2013-03-30 11:14:00,67.3,60.6,-100.00,SW,220,11.0,22.0,79,0.00,,,0.97,meteohub,2013-03-30 16:14:00,
2013-03-30 11:15:00,67.3,60.6,-100.00,SW,218,20.0,22.0,79,0.00,,,0.97,meteohub,2013-03-30 16:15:00,
2013-03-30 11:18:00,67.5,60.8,-100.00,SW,225,12.0,24.0,79,0.00,,,0.97,meteohub,2013-03-30 16:18:00,
2013-03-30 11:19:00,67.5,60.8,-100.00,SW,226,23.0,24.0,79,0.00,,,0.97,meteohub,2013-03-30 16:19:00,
2013-03-30 11:20:00,67.5,60.8,-100.00,SSW,207,16.0,24.0,79,0.00,,,0.97,meteohub,2013-03-30 16:20:00,
2013-03-30 11:23:00,67.8,60.6,-100.00,SW,232,13.0,24.0,78,0.00,,,0.97,meteohub,2013-03-30 16:23:00,
2013-03-30 11:24:00,67.8,60.6,-100.00,WSW,250,15.0,24.0,78,0.00,,,0.97,meteohub,2013-03-30 16:24:00,
2013-03-30 11:25:00,67.8,60.6,-100.00,SW,215,10.0,24.0,78,0.00,,,0.97,meteohub,2013-03-30 16:25:00,
2013-03-30 11:28:00,68.4,60.8,-100.00,SW,234,13.0,23.0,77,0.00,,,0.97,meteohub,2013-03-30 16:28:00,
2013-03-30 11:29:00,68.4,60.8,-100.00,SSW,196,14.0,23.0,77,0.00,,,0.97,meteohub,2013-03-30 16:29:00,
2013-03-30 11:30:00,68.4,60.4,-100.00,SW,220,9.0,23.0,76,0.00,,,0.97,meteohub,2013-03-30 16:30:00,
2013-03-30 11:34:00,68.7,60.8,-100.00,SW,216,6.0,23.0,76,0.00,,,0.97,meteohub,2013-03-30 16:34:00,
2013-03-30 11:35:00,68.7,60.8,-100.00,SW,235,11.0,23.0,76,0.00,,,0.97,meteohub,2013-03-30 16:35:00,
2013-03-30 11:36:00,69.1,61.5,-100.00,SW,217,16.0,23.0,77,0.00,,,0.97,meteohub,2013-03-30 16:36:00,
2013-03-30 11:39:00,69.4,61.2,-100.00,SW,217,17.0,21.0,75,0.00,,,0.97,meteohub,2013-03-30 16:39:00,
2013-03-30 11:40:00,69.4,61.2,-100.00,SW,222,10.0,21.0,75,0.00,,,0.97,meteohub,2013-03-30 16:40:00,
2013-03-30 11:41:00,69.4,60.8,-100.00,WSW,243,6.0,21.0,74,0.00,,,0.97,meteohub,2013-03-30 16:41:00,
2013-03-30 11:44:00,69.4,60.8,-100.00,WSW,246,13.0,21.0,74,0.00,,,0.97,meteohub,2013-03-30 16:44:00,
2013-03-30 11:45:00,69.4,60.8,-100.00,SW,231,18.0,21.0,74,0.00,,,0.97,meteohub,2013-03-30 16:45:00,
2013-03-30 11:46:00,69.4,60.8,-100.00,SW,235,14.0,21.0,74,0.00,,,0.97,meteohub,2013-03-30 16:46:00,
2013-03-30 11:47:00,69.4,61.2,-100.00,West,263,7.0,21.0,75,0.00,,,0.97,meteohub,2013-03-30 16:47:00,
2013-03-30 11:49:00,69.4,61.2,-100.00,WSW,238,9.0,21.0,75,0.00,,,0.97,meteohub,2013-03-30 16:49:00,
2013-03-30 11:50:00,69.4,61.2,-100.00,SW,217,11.0,21.0,75,0.00,,,0.97,meteohub,2013-03-30 16:50:00,
2013-03-30 11:51:00,69.6,61.3,-100.00,SW,235,13.0,21.0,75,0.00,,,0.97,meteohub,2013-03-30 16:51:00,
2013-03-30 11:52:00,69.6,61.3,-100.00,SW,229,17.0,21.0,75,0.00,,,0.97,meteohub,2013-03-30 16:52:00,
2013-03-30 11:55:00,69.8,61.2,-100.00,SW,225,11.0,21.0,74,0.00,,,0.97,meteohub,2013-03-30 16:55:00,
2013-03-30 11:57:00,70.0,61.3,-100.00,SW,228,10.0,20.0,74,0.00,,,0.97,meteohub,2013-03-30 16:57:00,
2013-03-30 12:00:00,70.0,61.3,-100.00,SW,236,13.0,20.0,74,0.00,,,0.97,meteohub,2013-03-30 17:00:00,
2013-03-30 12:02:00,70.2,61.5,-100.00,SW,228,6.0,20.0,74,0.00,,,0.97,meteohub,2013-03-30 17:02:00,
2013-03-30 12:05:00,70.2,61.5,-100.00,SW,233,11.0,20.0,74,0.00,,,0.97,meteohub,2013-03-30 17:05:00,
2013-03-30 12:06:00,70.2,61.5,-100.00,SSW,208,7.0,20.0,74,0.00,,,0.97,meteohub,2013-03-30 17:06:00,
2013-03-30 12:07:00,70.2,61.5,-100.00,SW,228,12.0,21.0,74,0.00,,,0.97,meteohub,2013-03-30 17:07:00,
2013-03-30 12:10:00,70.2,61.2,-100.00,WSW,237,15.0,21.0,73,0.00,,,0.97,meteohub,2013-03-30 17:10:00,
2013-03-30 12:12:00,70.0,61.0,-100.00,SW,230,11.0,21.0,73,0.00,,,0.97,meteohub,2013-03-30 17:12:00,
2013-03-30 12:13:00,70.0,61.0,-100.00,SW,221,11.0,21.0,73,0.00,,,0.97,meteohub,2013-03-30 17:13:00,
2013-03-30 12:14:00,70.0,61.0,-100.00,SW,227,6.0,21.0,73,0.00,,,0.97,meteohub,2013-03-30 17:14:00,
2013-03-30 12:15:00,70.0,61.0,-100.00,SW,218,12.0,21.0,73,0.00,,,0.97,meteohub,2013-03-30 17:15:00,
2013-03-30 12:17:00,70.0,61.0,-100.00,West,261,9.0,21.0,73,0.00,,,0.97,meteohub,2013-03-30 17:17:00,
2013-03-30 12:18:00,70.0,61.0,-100.00,SW,223,10.0,19.0,73,0.00,,,0.97,meteohub,2013-03-30 17:18:00,
2013-03-30 12:19:00,70.0,61.3,-100.00,SW,235,10.0,19.0,74,0.00,,,0.97,meteohub,2013-03-30 17:19:00,
2013-03-30 12:20:00,70.0,61.3,-100.00,WSW,238,7.0,19.0,74,0.00,,,0.97,meteohub,2013-03-30 17:20:00,
2013-03-30 12:22:00,70.2,61.2,-100.00,SW,226,5.0,19.0,73,0.00,,,0.97,meteohub,2013-03-30 17:22:00,
2013-03-30 12:23:00,70.2,61.2,-100.00,SW,223,13.0,19.0,73,0.00,,,0.97,meteohub,2013-03-30 17:23:00,
2013-03-30 12:24:00,70.2,61.2,-100.00,SW,231,12.0,19.0,73,0.00,,,0.97,meteohub,2013-03-30 17:24:00,
2013-03-30 12:25:00,70.2,61.2,-100.00,West,271,6.0,19.0,73,0.00,,,0.97,meteohub,2013-03-30 17:25:00,
2013-03-30 12:27:00,70.2,61.2,-100.00,WSW,239,5.0,19.0,73,0.00,,,0.97,meteohub,2013-03-30 17:27:00,
2013-03-30 12:28:00,70.2,61.2,-100.00,SSW,210,14.0,19.0,73,0.00,,,0.97,meteohub,2013-03-30 17:28:00,
2013-03-30 12:29:00,70.3,61.3,-100.00,WSW,242,10.0,19.0,73,0.00,,,0.97,meteohub,2013-03-30 17:29:00,
2013-03-30 12:32:00,70.3,60.8,-100.00,SSW,211,11.0,18.0,72,0.00,,,0.97,meteohub,2013-03-30 17:32:00,
2013-03-30 12:33:00,70.3,60.8,-100.00,WSW,239,11.0,18.0,72,0.00,,,0.97,meteohub,2013-03-30 17:33:00,
2013-03-30 12:34:00,70.5,61.0,-100.00,SW,222,11.0,18.0,72,0.00,,,0.97,meteohub,2013-03-30 17:34:00,
2013-03-30 12:37:00,70.9,61.0,-100.00,WSW,248,6.0,18.0,71,0.00,,,0.97,meteohub,2013-03-30 17:37:00,
2013-03-30 12:39:00,70.9,61.0,-100.00,SW,228,7.0,18.0,71,0.00,,,0.97,meteohub,2013-03-30 17:39:00,
2013-03-30 12:40:00,70.9,61.0,-100.00,SW,225,9.0,18.0,71,0.00,,,0.97,meteohub,2013-03-30 17:40:00,
2013-03-30 12:42:00,71.1,61.2,-100.00,WSW,248,10.0,20.0,71,0.00,,,0.97,meteohub,2013-03-30 17:42:00,
2013-03-30 12:44:00,71.2,61.3,-100.00,SW,231,9.0,20.0,71,0.00,,,0.97,meteohub,2013-03-30 17:44:00,
2013-03-30 12:45:00,71.4,61.5,-100.00,WSW,254,3.0,20.0,71,0.00,,,0.97,meteohub,2013-03-30 17:45:00,
2013-03-30 12:48:00,71.8,61.5,-100.00,SW,232,6.0,20.0,70,0.00,,,0.97,meteohub,2013-03-30 17:48:00,
2013-03-30 12:49:00,72.0,62.1,-100.00,WSW,246,2.0,20.0,71,0.00,,,0.97,meteohub,2013-03-30 17:49:00,
2013-03-30 12:50:00,72.1,61.3,-100.00,SW,230,7.0,20.0,69,0.00,,,0.97,meteohub,2013-03-30 17:50:00,
2013-03-30 12:53:00,72.3,61.5,-100.00,SW,236,5.0,17.0,69,0.00,,,0.97,meteohub,2013-03-30 17:53:00,
2013-03-30 12:54:00,72.5,61.7,-100.00,SW,233,10.0,17.0,69,0.00,,,0.97,meteohub,2013-03-30 17:54:00,
2013-03-30 12:55:00,72.5,61.7,-100.00,SW,232,9.0,17.0,69,0.00,,,0.97,meteohub,2013-03-30 17:55:00,
2013-03-30 12:59:00,72.5,61.7,-100.00,WSW,239,3.0,17.0,69,0.00,,,0.97,meteohub,2013-03-30 17:59:00,
2013-03-30 13:02:00,72.5,61.7,-100.00,SW,227,11.0,16.0,69,0.00,,,0.97,meteohub,2013-03-30 18:02:00,
2013-03-30 13:04:00,72.5,61.7,-100.00,WSW,240,7.0,16.0,69,0.00,,,0.97,meteohub,2013-03-30 18:04:00,
2013-03-30 13:05:00,72.7,61.9,-100.00,SW,232,9.0,16.0,69,0.00,,,0.97,meteohub,2013-03-30 18:05:00,
2013-03-30 13:07:00,72.9,61.3,-100.00,WSW,253,9.0,20.0,67,0.00,,,0.97,meteohub,2013-03-30 18:07:00,
2013-03-30 13:09:00,73.0,61.9,-100.00,WSW,247,10.0,20.0,68,0.00,,,0.97,meteohub,2013-03-30 18:09:00,
2013-03-30 13:10:00,73.2,62.1,-100.00,WSW,239,13.0,20.0,68,0.00,,,0.97,meteohub,2013-03-30 18:10:00,
2013-03-30 13:12:00,73.2,61.5,-100.00,SW,233,6.0,20.0,67,0.00,,,0.97,meteohub,2013-03-30 18:12:00,
2013-03-30 13:14:00,73.6,61.9,-100.00,WSW,245,4.0,20.0,67,0.00,,,0.97,meteohub,2013-03-30 18:14:00,
2013-03-30 13:15:00,73.6,61.9,-100.00,WSW,239,13.0,20.0,67,0.00,,,0.97,meteohub,2013-03-30 18:15:00,
2013-03-30 13:18:00,73.9,62.2,-100.00,WSW,240,4.0,23.0,67,0.00,,,0.97,meteohub,2013-03-30 18:18:00,
2013-03-30 13:20:00,73.9,61.9,-100.00,SW,234,14.0,23.0,66,0.00,,,0.97,meteohub,2013-03-30 18:20:00,
2013-03-30 13:23:00,73.9,61.9,-100.00,WSW,248,1.0,23.0,66,0.00,,,0.97,meteohub,2013-03-30 18:23:00,
2013-03-30 13:25:00,73.9,62.2,-100.00,WSW,238,2.0,23.0,67,0.00,,,0.97,meteohub,2013-03-30 18:25:00,
2013-03-30 13:26:00,73.9,62.2,-100.00,WSW,237,1.0,23.0,67,0.00,,,0.97,meteohub,2013-03-30 18:26:00,
2013-03-30 13:28:00,73.9,61.9,-100.00,SW,231,6.0,23.0,66,0.00,,,0.97,meteohub,2013-03-30 18:28:00,
2013-03-30 13:30:00,73.9,61.9,-100.00,SW,235,13.0,23.0,66,0.00,,,0.97,meteohub,2013-03-30 18:30:00,
2013-03-30 13:31:00,73.9,61.9,-100.00,WSW,239,3.0,23.0,66,0.00,,,0.97,meteohub,2013-03-30 18:31:00,
2013-03-30 13:32:00,73.9,61.9,-100.00,SW,227,6.0,19.0,66,0.00,,,0.97,meteohub,2013-03-30 18:32:00,
2013-03-30 13:33:00,73.9,62.2,-100.00,SW,236,10.0,19.0,67,0.00,,,0.97,meteohub,2013-03-30 18:33:00,
2013-03-30 13:35:00,73.9,62.2,-100.00,West,259,4.0,19.0,67,0.00,,,0.97,meteohub,2013-03-30 18:35:00,
2013-03-30 13:36:00,73.9,62.2,-100.00,SW,219,7.0,19.0,67,0.00,,,0.97,meteohub,2013-03-30 18:36:00,
2013-03-30 13:37:00,73.9,62.2,-100.00,WSW,239,8.0,19.0,67,0.00,,,0.97,meteohub,2013-03-30 18:37:00,
2013-03-30 13:38:00,73.9,61.3,-100.00,WSW,240,14.0,19.0,65,0.00,,,0.97,meteohub,2013-03-30 18:38:00,
2013-03-30 13:41:00,73.9,61.9,-100.00,WSW,252,2.0,19.0,66,0.00,,,0.97,meteohub,2013-03-30 18:41:00,
2013-03-30 13:42:00,73.9,61.9,-100.00,SW,225,4.0,19.0,66,0.00,,,0.97,meteohub,2013-03-30 18:42:00,
2013-03-30 13:43:00,73.9,61.9,-100.00,SW,224,5.0,19.0,66,0.00,,,0.97,meteohub,2013-03-30 18:43:00,
2013-03-30 13:46:00,74.1,61.2,-100.00,SW,232,10.0,19.0,64,0.00,,,0.97,meteohub,2013-03-30 18:46:00,
2013-03-30 13:47:00,74.5,61.5,-100.00,SW,215,9.0,17.0,64,0.00,,,0.97,meteohub,2013-03-30 18:47:00,
2013-03-30 13:48:00,74.5,61.5,-100.00,WSW,240,6.0,17.0,64,0.00,,,0.97,meteohub,2013-03-30 18:48:00,
2013-03-30 13:49:00,74.7,61.7,-100.00,SW,227,9.0,17.0,64,0.00,,,0.97,meteohub,2013-03-30 18:49:00,
2013-03-30 13:52:00,74.7,60.8,-100.00,SW,228,10.0,17.0,62,0.00,,,0.97,meteohub,2013-03-30 18:52:00,
2013-03-30 13:53:00,74.7,61.2,-100.00,WSW,242,14.0,17.0,63,0.00,,,0.97,meteohub,2013-03-30 18:53:00,
2013-03-30 13:54:00,74.7,60.8,-100.00,SW,231,6.0,17.0,62,0.00,,,0.97,meteohub,2013-03-30 18:54:00,
2013-03-30 13:57:00,74.8,61.0,-100.00,WSW,238,9.0,17.0,62,0.00,,,0.97,meteohub,2013-03-30 18:57:00,
2013-03-30 13:58:00,74.8,61.0,-100.00,WSW,244,12.0,17.0,62,0.00,,,0.97,meteohub,2013-03-30 18:58:00,
2013-03-30 13:59:00,74.8,61.3,-100.00,SW,223,15.0,17.0,63,0.00,,,0.97,meteohub,2013-03-30 18:59:00,
2013-03-30 14:00:00,74.8,61.0,-100.00,SSW,211,13.0,17.0,62,0.00,,,0.97,meteohub,2013-03-30 19:00:00,
2013-03-30 14:02:00,75.0,61.2,-100.00,WSW,251,12.0,18.0,62,0.00,,,0.97,meteohub,2013-03-30 19:02:00,
2013-03-30 14:03:00,75.0,61.2,-100.00,SW,231,7.0,18.0,62,0.00,,,0.97,meteohub,2013-03-30 19:03:00,
2013-03-30 14:04:00,75.4,61.9,-100.00,SSW,207,12.0,18.0,63,0.00,,,0.97,meteohub,2013-03-30 19:04:00,
2013-03-30 14:05:00,75.4,61.5,-100.00,WSW,254,9.0,18.0,62,0.00,,,0.97,meteohub,2013-03-30 19:05:00,
2013-03-30 14:07:00,75.4,61.5,-100.00,SW,225,11.0,18.0,62,0.00,,,0.97,meteohub,2013-03-30 19:07:00,
2013-03-30 14:08:00,75.4,61.9,-100.00,SW,236,7.0,18.0,63,0.00,,,0.97,meteohub,2013-03-30 19:08:00,
2013-03-30 14:10:00,75.6,61.2,-100.00,SW,229,11.0,18.0,61,0.00,,,0.97,meteohub,2013-03-30 19:10:00,
2013-03-30 14:13:00,75.9,61.9,-100.00,SW,235,7.0,18.0,62,0.00,,,0.97,meteohub,2013-03-30 19:13:00,
2013-03-30 14:15:00,76.3,61.9,-100.00,SW,225,9.0,18.0,61,0.00,,,0.97,meteohub,2013-03-30 19:15:00,
2013-03-30 14:18:00,76.3,61.3,-100.00,SW,220,7.0,16.0,60,0.00,,,0.97,meteohub,2013-03-30 19:18:00,
2013-03-30 14:20:00,76.3,61.9,-100.00,WSW,238,5.0,16.0,61,0.00,,,0.97,meteohub,2013-03-30 19:20:00,
2013-03-30 14:23:00,76.3,61.9,-100.00,SW,231,13.0,16.0,61,0.00,,,0.97,meteohub,2013-03-30 19:23:00,
2013-03-30 14:25:00,76.3,61.3,-100.00,SW,223,14.0,16.0,60,0.00,,,0.97,meteohub,2013-03-30 19:25:00,
2013-03-30 14:26:00,76.3,61.3,-100.00,SW,222,14.0,16.0,60,0.00,,,0.97,meteohub,2013-03-30 19:26:00,
2013-03-30 14:28:00,76.1,61.7,-100.00,SW,230,6.0,16.0,61,0.00,,,0.97,meteohub,2013-03-30 19:28:00,
2013-03-30 14:29:00,76.3,62.2,-100.00,SW,215,11.0,16.0,62,0.00,,,0.97,meteohub,2013-03-30 19:29:00,
2013-03-30 14:31:00,76.5,62.1,-100.00,WSW,252,6.0,16.0,61,0.00,,,0.97,meteohub,2013-03-30 19:31:00,
2013-03-30 14:33:00,76.5,61.5,-100.00,WSW,244,6.0,17.0,60,0.00,,,0.97,meteohub,2013-03-30 19:33:00,
2013-03-30 14:35:00,76.5,61.5,-100.00,SW,234,12.0,17.0,60,0.00,,,0.97,meteohub,2013-03-30 19:35:00,
2013-03-30 14:36:00,76.5,61.5,-100.00,SSW,209,10.0,17.0,60,0.00,,,0.97,meteohub,2013-03-30 19:36:00,
2013-03-30 14:39:00,76.3,61.9,-100.00,WSW,244,5.0,17.0,61,0.00,,,0.97,meteohub,2013-03-30 19:39:00,
2013-03-30 14:40:00,76.3,61.9,-100.00,SW,236,5.0,17.0,61,0.00,,,0.97,meteohub,2013-03-30 19:40:00,
2013-03-30 14:42:00,76.1,61.7,-100.00,SW,228,3.0,17.0,61,0.00,,,0.97,meteohub,2013-03-30 19:42:00,
2013-03-30 14:45:00,76.3,62.2,-100.00,SW,232,10.0,17.0,62,0.00,,,0.97,meteohub,2013-03-30 19:45:00,
2013-03-30 14:47:00,76.3,61.9,-100.00,SSW,210,8.0,17.0,61,0.00,,,0.97,meteohub,2013-03-30 19:47:00,
2013-03-30 14:48:00,76.3,61.9,-100.00,SSW,202,11.0,17.0,61,0.00,,,0.97,meteohub,2013-03-30 19:48:00,
2013-03-30 14:50:00,76.3,61.3,-100.00,SSW,206,11.0,17.0,60,0.00,,,0.97,meteohub,2013-03-30 19:50:00,
2013-03-30 14:53:00,76.3,61.9,-100.00,SW,227,12.0,16.0,61,0.00,,,0.97,meteohub,2013-03-30 19:53:00,
2013-03-30 14:57:00,76.1,61.2,-100.00,WSW,238,12.0,18.0,60,0.00,,,0.97,meteohub,2013-03-30 19:57:00,
2013-03-30 14:58:00,76.1,61.2,-100.00,SW,224,12.0,18.0,60,0.00,,,0.97,meteohub,2013-03-30 19:58:00,
2013-03-30 15:02:00,75.9,61.0,-100.00,SW,234,11.0,18.0,60,0.00,,,0.97,meteohub,2013-03-30 20:02:00,
2013-03-30 15:03:00,75.9,61.5,-100.00,WSW,237,6.0,18.0,61,0.00,,,0.97,meteohub,2013-03-30 20:03:00,
2013-03-30 15:07:00,75.7,61.3,-100.00,SW,225,6.0,18.0,61,0.00,,,0.97,meteohub,2013-03-30 20:07:00,
2013-03-30 15:08:00,75.7,61.9,-100.00,WSW,240,6.0,18.0,62,0.00,,,0.97,meteohub,2013-03-30 20:08:00,
2013-03-30 15:13:00,75.6,61.7,-100.00,SSW,210,6.0,18.0,62,0.00,,,0.97,meteohub,2013-03-30 20:13:00,
2013-03-30 15:14:00,75.6,61.7,-100.00,SSW,211,6.0,18.0,62,0.00,,,0.97,meteohub,2013-03-30 20:14:00,
2013-03-30 15:18:00,75.7,60.8,-100.00,SSW,205,11.0,18.0,60,0.00,,,0.97,meteohub,2013-03-30 20:18:00,
2013-03-30 15:19:00,75.7,61.3,-100.00,SSW,200,9.0,18.0,61,0.00,,,0.97,meteohub,2013-03-30 20:19:00,
2013-03-30 15:23:00,76.3,61.3,-100.00,SSW,196,14.0,17.0,60,0.00,,,0.97,meteohub,2013-03-30 20:23:00,
2013-03-30 15:24:00,76.3,61.3,-100.00,SSW,197,13.0,17.0,60,0.00,,,0.97,meteohub,2013-03-30 20:24:00,
2013-03-30 15:29:00,76.1,61.2,-100.00,SW,225,18.0,18.0,60,0.00,,,0.97,meteohub,2013-03-30 20:29:00,
2013-03-30 15:34:00,75.7,60.8,-100.00,SW,223,14.0,18.0,60,0.00,,,0.97,meteohub,2013-03-30 20:34:00,
2013-03-30 15:35:00,75.7,60.8,-100.00,SW,222,10.0,18.0,60,0.00,,,0.97,meteohub,2013-03-30 20:35:00,
2013-03-30 15:40:00,75.6,61.2,-100.00,SW,214,11.0,18.0,61,0.00,,,0.97,meteohub,2013-03-30 20:40:00,
2013-03-30 15:45:00,75.6,60.6,-100.00,SW,233,13.0,18.0,60,0.00,,,0.97,meteohub,2013-03-30 20:45:00,
2013-03-30 15:46:00,75.6,60.6,-100.00,SSW,213,6.0,18.0,60,0.00,,,0.97,meteohub,2013-03-30 20:46:00,
2013-03-30 15:50:00,75.9,61.0,-100.00,SSW,201,11.0,18.0,60,0.00,,,0.97,meteohub,2013-03-30 20:50:00,
2013-03-30 15:51:00,75.9,61.0,-100.00,SSW,207,7.0,18.0,60,0.00,,,0.97,meteohub,2013-03-30 20:51:00,
2013-03-30 15:55:00,76.3,61.0,-100.00,SSW,201,9.0,18.0,59,0.00,,,0.97,meteohub,2013-03-30 20:55:00,
2013-03-30 15:56:00,76.3,60.4,-100.00,SW,220,10.0,18.0,58,0.00,,,0.97,meteohub,2013-03-30 20:56:00,
2013-03-30 15:57:00,76.3,60.4,-100.00,SW,214,14.0,15.0,58,0.00,,,0.97,meteohub,2013-03-30 20:57:00,
2013-03-30 16:00:00,76.3,61.3,-100.00,SSW,195,12.0,15.0,60,0.00,,,0.97,meteohub,2013-03-30 21:00:00,
2013-03-30 16:01:00,76.3,61.3,-100.00,South,190,9.0,15.0,60,0.00,,,0.97,meteohub,2013-03-30 21:01:00,
2013-03-30 16:03:00,76.1,61.2,-100.00,SW,215,9.0,18.0,60,0.00,,,0.97,meteohub,2013-03-30 21:03:00,
2013-03-30 16:04:00,75.9,61.0,-100.00,SSW,200,10.0,18.0,60,0.00,,,0.97,meteohub,2013-03-30 21:04:00,
2013-03-30 16:06:00,75.9,61.5,-100.00,SSW,210,9.0,18.0,61,0.00,,,0.97,meteohub,2013-03-30 21:06:00,
2013-03-30 16:08:00,75.9,61.5,-100.00,SSW,198,9.0,18.0,61,0.00,,,0.97,meteohub,2013-03-30 21:08:00,
2013-03-30 16:09:00,75.7,61.3,-100.00,SSW,192,7.0,18.0,61,0.00,,,0.97,meteohub,2013-03-30 21:09:00,
2013-03-30 16:11:00,75.7,60.8,-100.00,SSW,199,9.0,18.0,60,0.00,,,0.97,meteohub,2013-03-30 21:11:00,
2013-03-30 16:13:00,75.6,61.2,-100.00,SW,217,10.0,18.0,61,0.00,,,0.97,meteohub,2013-03-30 21:13:00,
2013-03-30 16:14:00,75.6,60.6,-100.00,SW,214,13.0,18.0,60,0.00,,,0.97,meteohub,2013-03-30 21:14:00,
2013-03-30 16:16:00,75.6,60.6,-100.00,South,188,12.0,18.0,60,0.00,,,0.97,meteohub,2013-03-30 21:16:00,
2013-03-30 16:17:00,75.6,61.2,-100.00,SSW,207,9.0,18.0,61,0.00,,,0.97,meteohub,2013-03-30 21:17:00,
2013-03-30 16:19:00,75.7,60.8,-100.00,SSW,205,11.0,18.0,60,0.00,,,0.97,meteohub,2013-03-30 21:19:00,
2013-03-30 16:20:00,75.7,60.8,-100.00,SW,219,10.0,18.0,60,0.00,,,0.97,meteohub,2013-03-30 21:20:00,
2013-03-30 16:21:00,75.7,60.8,-100.00,SSW,200,10.0,18.0,60,0.00,,,0.97,meteohub,2013-03-30 21:21:00,
2013-03-30 16:23:00,75.7,60.8,-100.00,SSW,196,11.0,19.0,60,0.00,,,0.97,meteohub,2013-03-30 21:23:00,
2013-03-30 16:24:00,75.9,61.0,-100.00,SSW,205,12.0,19.0,60,0.00,,,0.97,meteohub,2013-03-30 21:24:00,
2013-03-30 16:25:00,75.9,61.0,-100.00,SSW,209,11.0,19.0,60,0.00,,,0.97,meteohub,2013-03-30 21:25:00,
2013-03-30 16:27:00,75.9,61.0,-100.00,SW,215,11.0,20.0,60,0.00,,,0.97,meteohub,2013-03-30 21:27:00,
2013-03-30 16:28:00,75.9,61.0,-100.00,SW,224,14.0,20.0,60,0.00,,,0.97,meteohub,2013-03-30 21:28:00,
2013-03-30 16:29:00,75.9,61.0,-100.00,SSW,209,10.0,20.0,60,0.00,,,0.97,meteohub,2013-03-30 21:29:00,
2013-03-30 16:30:00,75.9,61.0,-100.00,SSW,201,10.0,20.0,60,0.00,,,0.97,meteohub,2013-03-30 21:30:00,
2013-03-30 16:32:00,75.9,61.0,-100.00,SSW,209,17.0,20.0,60,0.00,,,0.97,meteohub,2013-03-30 21:32:00,
2013-03-30 16:34:00,75.9,61.0,-100.00,SW,215,13.0,20.0,60,0.00,,,0.97,meteohub,2013-03-30 21:34:00,
2013-03-30 16:35:00,75.9,61.0,-100.00,SSW,209,9.0,20.0,60,0.00,,,0.97,meteohub,2013-03-30 21:35:00,
2013-03-30 16:37:00,75.7,60.8,-100.00,SSW,201,8.0,20.0,60,0.00,,,0.97,meteohub,2013-03-30 21:37:00,
2013-03-30 16:40:00,75.6,60.6,-100.00,SW,217,19.0,20.0,60,0.00,,,0.97,meteohub,2013-03-30 21:40:00,
2013-03-30 16:42:00,75.4,61.0,-100.00,SW,219,12.0,20.0,61,0.00,,,0.97,meteohub,2013-03-30 21:42:00,
2013-03-30 16:45:00,75.4,61.0,-100.00,South,189,15.0,20.0,61,0.00,,,0.97,meteohub,2013-03-30 21:45:00,
2013-03-30 16:46:00,75.0,60.6,-100.00,South,186,7.0,20.0,61,0.00,,,0.97,meteohub,2013-03-30 21:46:00,
2013-03-30 16:47:00,75.0,60.6,-100.00,SSW,199,13.0,20.0,61,0.00,,,0.97,meteohub,2013-03-30 21:47:00,
2013-03-30 16:50:00,74.8,61.0,-100.00,SSW,206,13.0,20.0,62,0.00,,,0.97,meteohub,2013-03-30 21:50:00,
2013-03-30 16:51:00,74.8,61.0,-100.00,SSW,201,10.0,20.0,62,0.00,,,0.97,meteohub,2013-03-30 21:51:00,
2013-03-30 16:53:00,74.8,61.3,-100.00,SW,232,7.0,20.0,63,0.00,,,0.97,meteohub,2013-03-30 21:53:00,
2013-03-30 16:55:00,74.8,61.3,-100.00,SSW,204,10.0,20.0,63,0.00,,,0.97,meteohub,2013-03-30 21:55:00,
2013-03-30 16:56:00,74.8,61.3,-100.00,SSW,202,14.0,20.0,63,0.00,,,0.97,meteohub,2013-03-30 21:56:00,
2013-03-30 16:58:00,74.7,60.8,-100.00,South,187,9.0,20.0,62,0.00,,,0.97,meteohub,2013-03-30 21:58:00,
2013-03-30 17:01:00,74.7,61.2,-100.00,South,186,10.0,20.0,63,0.00,,,0.97,meteohub,2013-03-30 22:01:00,
2013-03-30 17:02:00,74.7,61.2,-100.00,SSW,213,14.0,20.0,63,0.00,,,0.97,meteohub,2013-03-30 22:02:00,
2013-03-30 17:04:00,74.5,61.0,-100.00,SSW,208,14.0,20.0,63,0.00,,,0.97,meteohub,2013-03-30 22:04:00,
2013-03-30 17:06:00,74.1,61.2,-100.00,SSW,211,17.0,20.0,64,0.00,,,0.97,meteohub,2013-03-30 22:06:00,
2013-03-30 17:07:00,74.1,61.2,-100.00,SSW,205,16.0,20.0,64,0.00,,,0.97,meteohub,2013-03-30 22:07:00,
2013-03-30 17:08:00,73.9,61.0,-100.00,SSW,211,11.0,20.0,64,0.00,,,0.97,meteohub,2013-03-30 22:08:00,
2013-03-30 17:09:00,73.9,61.0,-100.00,SSW,208,10.0,20.0,64,0.00,,,0.97,meteohub,2013-03-30 22:09:00,
2013-03-30 17:11:00,73.9,61.0,-100.00,SSW,200,7.0,20.0,64,0.00,,,0.97,meteohub,2013-03-30 22:11:00,
2013-03-30 17:12:00,73.9,61.0,-100.00,SSW,200,7.0,20.0,64,0.00,,,0.97,meteohub,2013-03-30 22:12:00,
2013-03-30 17:13:00,73.9,61.0,-100.00,SSW,205,10.0,20.0,64,0.00,,,0.97,meteohub,2013-03-30 22:13:00,
2013-03-30 17:14:00,73.9,61.0,-100.00,SSW,194,9.0,20.0,64,0.00,,,0.97,meteohub,2013-03-30 22:14:00,
2013-03-30 17:17:00,73.9,61.0,-100.00,SSW,204,4.0,18.0,64,0.00,,,0.97,meteohub,2013-03-30 22:17:00,
2013-03-30 17:18:00,73.9,61.0,-100.00,SSW,199,6.0,18.0,64,0.00,,,0.97,meteohub,2013-03-30 22:18:00,
2013-03-30 17:19:00,73.9,61.3,-100.00,SSW,197,6.0,18.0,65,0.00,,,0.97,meteohub,2013-03-30 22:19:00,
2013-03-30 17:22:00,74.1,61.2,-100.00,SW,218,6.0,18.0,64,0.00,,,0.97,meteohub,2013-03-30 22:22:00,
2013-03-30 17:23:00,74.1,61.5,-100.00,SSW,202,11.0,18.0,65,0.00,,,0.97,meteohub,2013-03-30 22:23:00,
2013-03-30 17:24:00,74.1,61.2,-100.00,SSW,211,12.0,18.0,64,0.00,,,0.97,meteohub,2013-03-30 22:24:00,
2013-03-30 17:27:00,74.1,61.2,-100.00,SW,214,12.0,16.0,64,0.00,,,0.97,meteohub,2013-03-30 22:27:00,
2013-03-30 17:28:00,73.9,61.0,-100.00,SSW,208,9.0,16.0,64,0.00,,,0.97,meteohub,2013-03-30 22:28:00,
2013-03-30 17:29:00,73.9,61.0,-100.00,SSW,205,9.0,16.0,64,0.00,,,0.97,meteohub,2013-03-30 22:29:00,
2013-03-30 17:33:00,73.9,61.0,-100.00,SSW,194,5.0,16.0,64,0.00,,,0.97,meteohub,2013-03-30 22:33:00,
2013-03-30 17:34:00,73.9,61.0,-100.00,SSW,202,9.0,16.0,64,0.00,,,0.97,meteohub,2013-03-30 22:34:00,
2013-03-30 17:35:00,73.9,61.0,-100.00,SSW,200,13.0,16.0,64,0.00,,,0.97,meteohub,2013-03-30 22:35:00,
2013-03-30 17:39:00,73.9,61.3,-100.00,SSW,196,9.0,16.0,65,0.00,,,0.97,meteohub,2013-03-30 22:39:00,
2013-03-30 17:40:00,73.9,61.3,-100.00,SSW,207,6.0,16.0,65,0.00,,,0.97,meteohub,2013-03-30 22:40:00,
2013-03-30 17:44:00,73.9,61.0,-100.00,SSW,202,10.0,15.0,64,0.00,,,0.97,meteohub,2013-03-30 22:44:00,
2013-03-30 17:45:00,73.9,61.0,-100.00,SSW,200,4.0,15.0,64,0.00,,,0.97,meteohub,2013-03-30 22:45:00,
2013-03-30 17:49:00,73.9,61.0,-100.00,SSW,196,12.0,15.0,64,0.00,,,0.97,meteohub,2013-03-30 22:49:00,
2013-03-30 17:50:00,73.9,61.0,-100.00,SSW,204,11.0,15.0,64,0.00,,,0.97,meteohub,2013-03-30 22:50:00,
2013-03-30 17:52:00,73.9,61.0,-100.00,South,189,4.0,15.0,64,0.00,,,0.97,meteohub,2013-03-30 22:52:00,
2013-03-30 17:54:00,73.9,61.0,-100.00,SSW,209,11.0,15.0,64,0.00,,,0.97,meteohub,2013-03-30 22:54:00,
2013-03-30 17:55:00,73.9,61.0,-100.00,SSW,211,7.0,15.0,64,0.00,,,0.97,meteohub,2013-03-30 22:55:00,
2013-03-30 17:57:00,73.9,61.0,-100.00,SSW,209,7.0,15.0,64,0.00,,,0.97,meteohub,2013-03-30 22:57:00,
2013-03-30 18:00:00,73.9,61.0,-100.00,SSW,196,7.0,15.0,64,0.00,,,0.97,meteohub,2013-03-30 23:00:00,
2013-03-30 18:02:00,73.9,61.0,-100.00,SSW,194,15.0,15.0,64,0.00,,,0.97,meteohub,2013-03-30 23:02:00,
2013-03-30 18:05:00,73.9,61.0,-100.00,SSW,202,6.0,15.0,64,0.00,,,0.97,meteohub,2013-03-30 23:05:00,
2013-03-30 18:07:00,73.9,61.0,-100.00,SSW,196,6.0,15.0,64,0.00,,,0.97,meteohub,2013-03-30 23:07:00,
2013-03-30 18:10:00,73.9,61.0,-100.00,SSW,199,7.0,15.0,64,0.00,,,0.97,meteohub,2013-03-30 23:10:00,
2013-03-30 18:11:00,73.9,61.0,-100.00,SSW,199,8.0,15.0,64,0.00,,,0.97,meteohub,2013-03-30 23:11:00,
2013-03-30 18:12:00,73.9,61.0,-100.00,SSW,197,6.0,15.0,64,0.00,,,0.97,meteohub,2013-03-30 23:12:00,
2013-03-30 18:16:00,73.9,61.0,-100.00,SSW,208,11.0,15.0,64,0.00,,,0.97,meteohub,2013-03-30 23:16:00,
2013-03-30 18:17:00,73.9,61.0,-100.00,SSW,198,6.0,15.0,64,0.00,,,0.97,meteohub,2013-03-30 23:17:00,
2013-03-30 18:18:00,73.9,61.0,-100.00,SSW,198,5.0,15.0,64,0.00,,,0.97,meteohub,2013-03-30 23:18:00,
2013-03-30 18:21:00,73.9,61.0,-100.00,SSW,210,8.0,15.0,64,0.00,,,0.97,meteohub,2013-03-30 23:21:00,
2013-03-30 18:22:00,73.9,61.0,-100.00,SSW,209,5.0,15.0,64,0.00,,,0.97,meteohub,2013-03-30 23:22:00,
2013-03-30 18:23:00,73.9,61.0,-100.00,SSW,209,4.0,15.0,64,0.00,,,0.97,meteohub,2013-03-30 23:23:00,
2013-03-30 18:26:00,73.8,60.8,-100.00,SSW,204,9.0,15.0,64,0.00,,,0.97,meteohub,2013-03-30 23:26:00,
2013-03-30 18:27:00,73.8,60.8,-100.00,SSW,202,4.0,15.0,64,0.00,,,0.97,meteohub,2013-03-30 23:27:00,
2013-03-30 18:28:00,73.8,60.8,-100.00,SSW,202,4.0,15.0,64,0.00,,,0.97,meteohub,2013-03-30 23:28:00,
2013-03-30 18:31:00,73.8,60.8,-100.00,SSW,198,1.0,15.0,64,0.00,,,0.97,meteohub,2013-03-30 23:31:00,
2013-03-30 18:32:00,73.8,60.8,-100.00,SSW,198,2.0,15.0,64,0.00,,,0.97,meteohub,2013-03-30 23:32:00,
2013-03-30 18:33:00,73.8,60.8,-100.00,SSW,198,6.0,15.0,64,0.00,,,0.97,meteohub,2013-03-30 23:33:00,
2013-03-30 18:37:00,73.6,60.6,-100.00,SSW,199,6.0,15.0,64,0.00,,,0.97,meteohub,2013-03-30 23:37:00,
2013-03-30 18:38:00,73.6,60.6,-100.00,SSW,199,5.0,15.0,64,0.00,,,0.97,meteohub,2013-03-30 23:38:00,
2013-03-30 18:39:00,73.6,60.6,-100.00,SSW,201,8.0,15.0,64,0.00,,,0.97,meteohub,2013-03-30 23:39:00,
2013-03-30 18:42:00,73.6,60.6,-100.00,SSW,200,4.0,10.0,64,0.00,,,0.97,meteohub,2013-03-30 23:42:00,
2013-03-30 18:43:00,73.6,60.6,-100.00,SSW,209,5.0,10.0,64,0.00,,,0.97,meteohub,2013-03-30 23:43:00,
2013-03-30 18:44:00,73.2,60.3,-100.00,SSW,209,7.0,10.0,64,0.00,,,0.97,meteohub,2013-03-30 23:44:00,
2013-03-30 18:47:00,73.2,60.3,-100.00,SSW,211,9.0,11.0,64,0.00,,,0.97,meteohub,2013-03-30 23:47:00,
2013-03-30 18:48:00,73.2,60.3,-100.00,SSW,211,6.0,11.0,64,0.00,,,0.97,meteohub,2013-03-30 23:48:00,
2013-03-30 18:49:00,73.2,60.3,-100.00,SSW,209,5.0,11.0,64,0.00,,,0.97,meteohub,2013-03-30 23:49:00,
2013-03-30 18:52:00,73.2,60.3,-100.00,SSW,208,3.0,12.0,64,0.00,,,0.97,meteohub,2013-03-30 23:52:00,
2013-03-30 18:53:00,73.2,60.3,-100.00,SSW,207,7.0,12.0,64,0.00,,,0.97,meteohub,2013-03-30 23:53:00,
2013-03-30 18:55:00,73.2,60.3,-100.00,SSW,202,4.0,12.0,64,0.00,,,0.97,meteohub,2013-03-30 23:55:00,
2013-03-30 18:57:00,73.2,60.3,-100.00,SSW,206,7.0,13.0,64,0.00,,,0.97,meteohub,2013-03-30 23:57:00,
2013-03-30 18:58:00,73.2,60.3,-100.00,SSW,206,6.0,13.0,64,0.00,,,0.97,meteohub,2013-03-30 23:58:00,
2013-03-30 18:59:00,73.2,60.3,-100.00,SSW,203,9.0,13.0,64,0.00,,,0.97,meteohub,2013-03-30 23:59:00,
2013-03-30 19:02:00,73.2,60.3,-100.00,SSW,207,3.0,13.0,64,0.00,,,0.97,meteohub,2013-03-31 00:02:00,
2013-03-30 19:03:00,73.2,60.8,-100.00,SSW,207,4.0,13.0,65,0.00,,,0.97,meteohub,2013-03-31 00:03:00,
2013-03-30 19:04:00,73.0,60.6,-100.00,SSW,207,5.0,13.0,65,0.00,,,0.97,meteohub,2013-03-31 00:04:00,
2013-03-30 19:08:00,73.0,60.6,-100.00,SSW,207,2.0,13.0,65,0.00,,,0.97,meteohub,2013-03-31 00:08:00,
2013-03-30 19:09:00,73.0,60.6,-100.00,SSW,207,4.0,13.0,65,0.00,,,0.97,meteohub,2013-03-31 00:09:00,
2013-03-30 19:13:00,72.9,60.4,-100.00,SSW,207,2.0,12.0,65,0.00,,,0.97,meteohub,2013-03-31 00:13:00,
2013-03-30 19:14:00,72.9,60.4,-100.00,SSW,207,2.0,12.0,65,0.00,,,0.97,meteohub,2013-03-31 00:14:00,
2013-03-30 19:18:00,72.9,60.8,-100.00,SSW,207,2.0,7.0,66,0.00,,,0.97,meteohub,2013-03-31 00:18:00,
2013-03-30 19:19:00,72.9,60.8,-100.00,SSW,207,5.0,7.0,66,0.00,,,0.97,meteohub,2013-03-31 00:19:00,
2013-03-30 19:23:00,72.7,60.6,-100.00,SSW,207,3.0,7.0,66,0.00,,,0.97,meteohub,2013-03-31 00:23:00,
2013-03-30 19:24:00,72.7,60.6,-100.00,SSW,207,4.0,7.0,66,0.00,,,0.97,meteohub,2013-03-31 00:24:00,
2013-03-30 19:25:00,72.7,60.6,-100.00,SSW,207,4.0,7.0,66,0.00,,,0.97,meteohub,2013-03-31 00:25:00,
2013-03-30 19:28:00,72.5,60.4,-100.00,SSW,207,1.0,7.0,66,0.00,,,0.97,meteohub,2013-03-31 00:28:00,
2013-03-30 19:29:00,72.5,60.4,-100.00,SSW,207,1.0,7.0,66,0.00,,,0.97,meteohub,2013-03-31 00:29:00,
2013-03-30 19:30:00,72.5,60.4,-100.00,SSW,207,2.0,7.0,66,0.00,,,0.97,meteohub,2013-03-31 00:30:00,
2013-03-30 19:34:00,72.3,60.3,-100.00,SSW,207,3.0,5.0,66,0.00,,,0.97,meteohub,2013-03-31 00:34:00,
2013-03-30 19:35:00,72.1,60.6,-100.00,SSW,207,2.0,5.0,67,0.00,,,0.97,meteohub,2013-03-31 00:35:00,
2013-03-30 19:39:00,72.0,60.4,-100.00,SSW,207,2.0,4.0,67,0.00,,,0.97,meteohub,2013-03-31 00:39:00,
2013-03-30 19:40:00,72.0,60.4,-100.00,SSW,207,3.0,4.0,67,0.00,,,0.97,meteohub,2013-03-31 00:40:00,
2013-03-30 19:44:00,71.6,60.1,-100.00,SSW,207,4.0,5.0,67,0.00,,,0.97,meteohub,2013-03-31 00:44:00,
2013-03-30 19:45:00,71.6,60.1,-100.00,SSW,207,4.0,5.0,67,0.00,,,0.97,meteohub,2013-03-31 00:45:00,
2013-03-30 19:49:00,71.2,60.1,-100.00,SSW,206,4.0,5.0,68,0.00,,,0.97,meteohub,2013-03-31 00:49:00,
2013-03-30 19:50:00,71.2,60.1,-100.00,SSW,206,3.0,5.0,68,0.00,,,0.97,meteohub,2013-03-31 00:50:00,
2013-03-30 19:54:00,70.9,60.3,-100.00,SSW,205,4.0,6.0,69,0.00,,,0.97,meteohub,2013-03-31 00:54:00,
2013-03-30 19:55:00,70.9,60.3,-100.00,SSW,205,3.0,6.0,69,0.00,,,0.97,meteohub,2013-03-31 00:55:00,
2013-03-30 20:00:00,70.9,60.6,-100.00,South,189,6.0,6.0,70,0.00,,,0.97,meteohub,2013-03-31 01:00:00,
2013-03-30 20:02:00,70.5,60.3,-100.00,South,188,3.0,7.0,70,0.00,,,0.97,meteohub,2013-03-31 01:02:00,
2013-03-30 20:05:00,70.3,60.4,-100.00,South,188,5.0,7.0,71,0.00,,,0.97,meteohub,2013-03-31 01:05:00,
2013-03-30 20:06:00,70.3,60.4,-100.00,South,187,5.0,7.0,71,0.00,,,0.97,meteohub,2013-03-31 01:06:00,
2013-03-30 20:07:00,70.3,60.4,-100.00,South,187,3.0,7.0,71,0.00,,,0.97,meteohub,2013-03-31 01:07:00,
2013-03-30 20:10:00,70.3,60.4,-100.00,South,187,3.0,7.0,71,0.00,,,0.97,meteohub,2013-03-31 01:10:00,
2013-03-30 20:12:00,70.2,60.6,-100.00,South,187,4.0,7.0,72,0.00,,,0.97,meteohub,2013-03-31 01:12:00,
2013-03-30 20:15:00,70.0,60.6,-100.00,South,187,5.0,7.0,72,0.00,,,0.97,meteohub,2013-03-31 01:15:00,
2013-03-30 20:16:00,70.0,60.6,-100.00,South,187,3.0,6.0,72,0.00,,,0.97,meteohub,2013-03-31 01:16:00,
2013-03-30 20:17:00,70.0,60.6,-100.00,South,187,4.0,6.0,72,0.00,,,0.97,meteohub,2013-03-31 01:17:00,
2013-03-30 20:22:00,69.6,60.6,-100.00,South,187,1.0,6.0,73,0.00,,,0.97,meteohub,2013-03-31 01:22:00,
2013-03-30 20:23:00,69.4,60.4,-100.00,South,187,2.0,6.0,73,0.00,,,0.97,meteohub,2013-03-31 01:23:00,
2013-03-30 20:27:00,69.1,60.4,-100.00,South,187,2.0,6.0,74,0.00,,,0.97,meteohub,2013-03-31 01:27:00,
2013-03-30 20:28:00,69.1,60.4,-100.00,South,187,2.0,6.0,74,0.00,,,0.97,meteohub,2013-03-31 01:28:00,
2013-03-30 20:29:00,68.9,60.3,-100.00,South,187,3.0,6.0,74,0.00,,,0.97,meteohub,2013-03-31 01:29:00,
2013-03-30 20:32:00,68.7,60.4,-100.00,South,187,2.0,4.0,75,0.00,,,0.97,meteohub,2013-03-31 01:32:00,
2013-03-30 20:33:00,68.7,60.4,-100.00,South,187,2.0,4.0,75,0.00,,,0.97,meteohub,2013-03-31 01:33:00,
2013-03-30 20:34:00,68.5,60.3,-100.00,South,187,3.0,4.0,75,0.00,,,0.97,meteohub,2013-03-31 01:34:00,
2013-03-30 20:35:00,68.5,60.3,-100.00,South,187,4.0,4.0,75,0.00,,,0.97,meteohub,2013-03-31 01:35:00,
2013-03-30 20:37:00,68.5,60.3,-100.00,South,187,2.0,4.0,75,0.00,,,0.97,meteohub,2013-03-31 01:37:00,
2013-03-30 20:38:00,68.4,60.1,-100.00,South,187,2.0,4.0,75,0.00,,,0.97,meteohub,2013-03-31 01:38:00,
2013-03-30 20:39:00,68.4,60.1,-100.00,South,187,2.0,4.0,75,0.00,,,0.97,meteohub,2013-03-31 01:39:00,
2013-03-30 20:40:00,68.4,60.4,-100.00,South,187,2.0,4.0,76,0.00,,,0.97,meteohub,2013-03-31 01:40:00,
2013-03-30 20:43:00,68.4,60.4,-100.00,South,187,2.0,4.0,76,0.00,,,0.97,meteohub,2013-03-31 01:43:00,
2013-03-30 20:44:00,68.4,60.4,-100.00,South,187,1.0,4.0,76,0.00,,,0.97,meteohub,2013-03-31 01:44:00,
2013-03-30 20:47:00,68.4,60.4,-100.00,South,187,1.0,4.0,76,0.00,,,0.97,meteohub,2013-03-31 01:47:00,
2013-03-30 20:48:00,68.2,60.3,-100.00,South,187,1.0,4.0,76,0.00,,,0.97,meteohub,2013-03-31 01:48:00,
2013-03-30 20:49:00,68.2,60.3,-100.00,South,187,3.0,4.0,76,0.00,,,0.97,meteohub,2013-03-31 01:49:00,
2013-03-30 20:52:00,67.8,60.3,-100.00,South,187,2.0,3.0,77,0.00,,,0.97,meteohub,2013-03-31 01:52:00,
2013-03-30 20:54:00,67.8,60.3,-100.00,South,187,1.0,3.0,77,0.00,,,0.97,meteohub,2013-03-31 01:54:00,
2013-03-30 20:55:00,67.8,60.3,-100.00,South,187,1.0,3.0,77,0.00,,,0.97,meteohub,2013-03-31 01:55:00,
2013-03-30 20:57:00,67.6,60.3,-100.00,South,187,2.0,3.0,77,0.00,,,0.97,meteohub,2013-03-31 01:57:00,
2013-03-30 20:59:00,67.5,60.4,-100.00,South,187,2.0,3.0,78,0.00,,,0.97,meteohub,2013-03-31 01:59:00,
2013-03-30 21:00:00,67.5,60.4,-100.00,South,187,3.0,3.0,78,0.00,,,0.97,meteohub,2013-03-31 02:00:00,
2013-03-30 21:02:00,67.5,60.4,-100.00,South,187,2.0,3.0,78,0.00,,,0.97,meteohub,2013-03-31 02:02:00,
2013-03-30 21:05:00,67.5,60.4,-100.00,South,187,3.0,3.0,78,0.00,,,0.97,meteohub,2013-03-31 02:05:00,
2013-03-30 21:07:00,67.5,60.4,-100.00,South,187,1.0,4.0,78,0.00,,,0.97,meteohub,2013-03-31 02:07:00,
2013-03-30 21:10:00,67.5,60.4,-100.00,South,187,3.0,4.0,78,0.00,,,0.97,meteohub,2013-03-31 02:10:00,
2013-03-30 21:13:00,67.5,60.4,-100.00,South,187,3.0,6.0,78,0.00,,,0.97,meteohub,2013-03-31 02:13:00,
2013-03-30 21:15:00,67.5,60.4,-100.00,South,187,2.0,6.0,78,0.00,,,0.97,meteohub,2013-03-31 02:15:00,
2013-03-30 21:16:00,67.5,60.4,-100.00,South,187,2.0,6.0,78,0.00,,,0.97,meteohub,2013-03-31 02:16:00,
2013-03-30 21:18:00,67.5,60.4,-100.00,South,187,1.0,6.0,78,0.00,,,0.97,meteohub,2013-03-31 02:18:00,
2013-03-30 21:21:00,67.5,60.4,-100.00,South,187,2.0,6.0,78,0.00,,,0.97,meteohub,2013-03-31 02:21:00,
2013-03-30 21:23:00,67.3,60.3,-100.00,South,187,3.0,4.0,78,0.00,,,0.97,meteohub,2013-03-31 02:23:00,
2013-03-30 21:24:00,67.3,60.3,-100.00,South,187,2.0,4.0,78,0.00,,,0.97,meteohub,2013-03-31 02:24:00,
2013-03-30 21:26:00,67.3,60.3,-100.00,South,187,3.0,4.0,78,0.00,,,0.97,meteohub,2013-03-31 02:26:00,
2013-03-30 21:28:00,67.3,60.3,-100.00,South,187,3.0,4.0,78,0.00,,,0.97,meteohub,2013-03-31 02:28:00,
2013-03-30 21:30:00,67.3,60.3,-100.00,South,187,2.0,4.0,78,0.00,,,0.97,meteohub,2013-03-31 02:30:00,
2013-03-30 21:31:00,67.3,60.3,-100.00,South,187,1.0,4.0,78,0.00,,,0.97,meteohub,2013-03-31 02:31:00,
2013-03-30 21:34:00,67.1,60.1,-100.00,South,187,0.0,4.0,78,0.00,,,0.97,meteohub,2013-03-31 02:34:00,
2013-03-30 21:36:00,67.1,60.1,-100.00,South,187,0.0,4.0,78,0.00,,,0.97,meteohub,2013-03-31 02:36:00,
2013-03-30 21:40:00,66.9,60.3,-100.00,South,187,3.0,4.0,79,0.00,,,0.97,meteohub,2013-03-31 02:40:00,
2013-03-30 21:41:00,66.9,60.3,-100.00,South,187,2.0,4.0,79,0.00,,,0.97,meteohub,2013-03-31 02:41:00,
2013-03-30 21:42:00,66.9,60.3,-100.00,South,187,2.0,4.0,79,0.00,,,0.97,meteohub,2013-03-31 02:42:00,
2013-03-30 21:45:00,66.7,60.4,-100.00,South,187,3.0,4.0,80,0.00,,,0.97,meteohub,2013-03-31 02:45:00,
2013-03-30 21:46:00,66.7,60.4,-100.00,South,187,2.0,4.0,80,0.00,,,0.97,meteohub,2013-03-31 02:46:00,
2013-03-30 21:47:00,66.7,60.4,-100.00,South,187,2.0,3.0,80,0.00,,,0.97,meteohub,2013-03-31 02:47:00,
2013-03-30 21:48:00,66.7,60.4,-100.00,South,187,2.0,3.0,80,0.00,,,0.97,meteohub,2013-03-31 02:48:00,
2013-03-30 21:50:00,66.7,60.4,-100.00,South,187,2.0,3.0,80,0.00,,,0.97,meteohub,2013-03-31 02:50:00,
2013-03-30 21:52:00,66.7,60.4,-100.00,South,187,1.0,4.0,80,0.00,,,0.97,meteohub,2013-03-31 02:52:00,
2013-03-30 21:53:00,66.7,60.4,-100.00,South,187,2.0,4.0,80,0.00,,,0.97,meteohub,2013-03-31 02:53:00,
2013-03-30 21:55:00,66.7,60.8,-100.00,South,187,1.0,4.0,81,0.00,,,0.97,meteohub,2013-03-31 02:55:00,
2013-03-30 21:57:00,66.7,60.8,-100.00,South,187,1.0,4.0,81,0.00,,,0.97,meteohub,2013-03-31 02:57:00,
2013-03-30 21:58:00,66.9,61.0,-100.00,South,187,1.0,4.0,81,0.00,,,0.97,meteohub,2013-03-31 02:58:00,
2013-03-30 21:59:00,66.9,61.0,-100.00,South,187,1.0,4.0,81,0.00,,,0.97,meteohub,2013-03-31 02:59:00,
2013-03-30 22:01:00,66.9,61.0,-100.00,South,187,3.0,4.0,81,0.00,,,0.97,meteohub,2013-03-31 03:01:00,
2013-03-30 22:03:00,66.9,60.6,-100.00,South,187,2.0,4.0,80,0.00,,,0.97,meteohub,2013-03-31 03:03:00,
2013-03-30 22:04:00,66.7,60.4,-100.00,South,187,2.0,4.0,80,0.00,,,0.97,meteohub,2013-03-31 03:04:00,
2013-03-30 22:07:00,66.7,60.4,-100.00,South,187,1.0,3.0,80,0.00,,,0.97,meteohub,2013-03-31 03:07:00,
2013-03-30 22:09:00,66.6,60.3,-100.00,South,187,2.0,3.0,80,0.00,,,0.97,meteohub,2013-03-31 03:09:00,
2013-03-30 22:10:00,66.6,60.3,-100.00,South,187,2.0,3.0,80,0.00,,,0.97,meteohub,2013-03-31 03:10:00,
2013-03-30 22:12:00,66.4,60.1,-100.00,South,187,2.0,3.0,80,0.00,,,0.97,meteohub,2013-03-31 03:12:00,
2013-03-30 22:14:00,66.4,60.4,-100.00,South,187,2.0,3.0,81,0.00,,,0.97,meteohub,2013-03-31 03:14:00,
2013-03-30 22:15:00,66.4,60.4,-100.00,South,187,2.0,3.0,81,0.00,,,0.97,meteohub,2013-03-31 03:15:00,
2013-03-30 22:17:00,66.4,60.4,-100.00,South,187,2.0,3.0,81,0.00,,,0.97,meteohub,2013-03-31 03:17:00,
2013-03-30 22:19:00,66.0,60.1,-100.00,South,187,3.0,3.0,81,0.00,,,0.97,meteohub,2013-03-31 03:19:00,
2013-03-30 22:20:00,66.0,60.1,-100.00,South,187,2.0,3.0,81,0.00,,,0.97,meteohub,2013-03-31 03:20:00,
2013-03-30 22:22:00,66.0,60.1,-100.00,South,187,2.0,3.0,81,0.00,,,0.97,meteohub,2013-03-31 03:22:00,
2013-03-30 22:24:00,66.0,60.1,-100.00,South,187,2.0,3.0,81,0.00,,,0.97,meteohub,2013-03-31 03:24:00,
2013-03-30 22:25:00,65.8,59.9,-100.00,South,187,3.0,3.0,81,0.00,,,0.97,meteohub,2013-03-31 03:25:00,
2013-03-30 22:27:00,65.8,60.3,-100.00,South,187,3.0,4.0,82,0.00,,,0.97,meteohub,2013-03-31 03:27:00,
2013-03-30 22:29:00,65.8,60.3,-100.00,South,187,3.0,4.0,82,0.00,,,0.97,meteohub,2013-03-31 03:29:00,
2013-03-30 22:30:00,65.8,60.3,-100.00,South,187,3.0,4.0,82,0.00,,,0.97,meteohub,2013-03-31 03:30:00,
2013-03-30 22:31:00,65.7,60.1,-100.00,South,187,2.0,5.0,82,0.00,,,0.97,meteohub,2013-03-31 03:31:00,
2013-03-30 22:33:00,65.7,60.1,-100.00,South,187,4.0,5.0,82,0.00,,,0.97,meteohub,2013-03-31 03:33:00,
2013-03-30 22:34:00,65.7,60.1,-100.00,South,187,2.0,5.0,82,0.00,,,0.97,meteohub,2013-03-31 03:34:00,
2013-03-30 22:35:00,65.7,60.1,-100.00,South,187,3.0,5.0,82,0.00,,,0.97,meteohub,2013-03-31 03:35:00,
2013-03-30 22:37:00,65.7,60.1,-100.00,South,187,3.0,5.0,82,0.00,,,0.97,meteohub,2013-03-31 03:37:00,
2013-03-30 22:38:00,65.5,60.3,-100.00,South,187,3.0,5.0,83,0.00,,,0.97,meteohub,2013-03-31 03:38:00,
2013-03-30 22:39:00,65.5,60.3,-100.00,South,187,3.0,5.0,83,0.00,,,0.97,meteohub,2013-03-31 03:39:00,
2013-03-30 22:41:00,65.5,60.3,-100.00,South,187,4.0,5.0,83,0.00,,,0.97,meteohub,2013-03-31 03:41:00,
2013-03-30 22:42:00,65.5,60.3,-100.00,South,187,3.0,5.0,83,0.00,,,0.97,meteohub,2013-03-31 03:42:00,
2013-03-30 22:44:00,65.5,60.3,-100.00,South,187,2.0,5.0,83,0.00,,,0.97,meteohub,2013-03-31 03:44:00,
2013-03-30 22:47:00,65.7,60.4,-100.00,South,187,4.0,6.0,83,0.00,,,0.97,meteohub,2013-03-31 03:47:00,
2013-03-30 22:48:00,65.7,60.4,-100.00,South,187,4.0,6.0,83,0.00,,,0.97,meteohub,2013-03-31 03:48:00,
2013-03-30 22:49:00,65.7,60.4,-100.00,South,187,4.0,6.0,83,0.00,,,0.97,meteohub,2013-03-31 03:49:00,
2013-03-30 22:50:00,65.7,60.4,-100.00,South,187,3.0,6.0,83,0.00,,,0.97,meteohub,2013-03-31 03:50:00,
2013-03-30 22:52:00,65.8,60.6,-100.00,South,186,4.0,6.0,83,0.00,,,0.97,meteohub,2013-03-31 03:52:00,
2013-03-30 22:53:00,65.8,60.6,-100.00,South,185,5.0,6.0,83,0.00,,,0.97,meteohub,2013-03-31 03:53:00,
2013-03-30 22:54:00,65.8,60.6,-100.00,South,183,6.0,6.0,83,0.00,,,0.97,meteohub,2013-03-31 03:54:00,
2013-03-30 22:55:00,65.8,60.6,-100.00,South,183,5.0,6.0,83,0.00,,,0.97,meteohub,2013-03-31 03:55:00,
2013-03-30 22:57:00,66.0,60.4,-100.00,South,179,4.0,7.0,82,0.00,,,0.97,meteohub,2013-03-31 03:57:00,
2013-03-30 22:58:00,66.0,60.4,-100.00,South,179,5.0,7.0,82,0.00,,,0.97,meteohub,2013-03-31 03:58:00,
2013-03-30 23:00:00,66.0,60.4,-100.00,South,173,6.0,7.0,82,0.00,,,0.97,meteohub,2013-03-31 04:00:00,
2013-03-30 23:02:00,66.0,60.4,-100.00,South,171,6.0,7.0,82,0.00,,,0.97,meteohub,2013-03-31 04:02:00,
2013-03-30 23:05:00,66.0,60.1,-100.00,South,169,6.0,9.0,81,0.00,,,0.97,meteohub,2013-03-31 04:05:00,
2013-03-30 23:06:00,66.0,60.1,-100.00,South,169,5.0,9.0,81,0.00,,,0.97,meteohub,2013-03-31 04:06:00,
2013-03-30 23:07:00,66.0,60.1,-100.00,South,169,5.0,9.0,81,0.00,,,0.97,meteohub,2013-03-31 04:07:00,
2013-03-30 23:10:00,66.0,60.1,-100.00,SSE,167,8.0,9.0,81,0.00,,,0.97,meteohub,2013-03-31 04:10:00,
2013-03-30 23:11:00,66.0,60.1,-100.00,SSE,167,7.0,10.0,81,0.00,,,0.97,meteohub,2013-03-31 04:11:00,
2013-03-30 23:12:00,66.4,60.4,-100.00,SSE,167,4.0,10.0,81,0.00,,,0.97,meteohub,2013-03-31 04:12:00,
2013-03-30 23:15:00,66.4,60.1,-100.00,SSE,167,6.0,10.0,80,0.00,,,0.97,meteohub,2013-03-31 04:15:00,
2013-03-30 23:17:00,66.4,60.1,-100.00,SSE,167,4.0,10.0,80,0.00,,,0.97,meteohub,2013-03-31 04:17:00,
2013-03-30 23:18:00,66.4,60.1,-100.00,SSE,167,4.0,10.0,80,0.00,,,0.97,meteohub,2013-03-31 04:18:00,
2013-03-30 23:20:00,66.4,60.1,-100.00,SSE,166,6.0,10.0,80,0.00,,,0.97,meteohub,2013-03-31 04:20:00,
2013-03-30 23:21:00,66.4,60.1,-100.00,SSE,166,6.0,10.0,80,0.00,,,0.97,meteohub,2013-03-31 04:21:00,
2013-03-30 23:23:00,66.4,59.7,-100.00,SSE,166,6.0,10.0,79,0.00,,,0.97,meteohub,2013-03-31 04:23:00,
2013-03-30 23:26:00,66.6,59.9,-100.00,SSE,166,6.0,9.0,79,0.00,,,0.97,meteohub,2013-03-31 04:26:00,
2013-03-30 23:27:00,66.6,59.9,-100.00,SSE,166,5.0,9.0,79,0.00,,,0.97,meteohub,2013-03-31 04:27:00,
2013-03-30 23:28:00,66.6,59.9,-100.00,SSE,166,3.0,9.0,79,0.00,,,0.97,meteohub,2013-03-31 04:28:00,
2013-03-30 23:29:00,66.6,59.9,-100.00,SSE,166,5.0,9.0,79,0.00,,,0.97,meteohub,2013-03-31 04:29:00,
2013-03-30 23:31:00,66.6,59.9,-100.00,SSE,166,4.0,9.0,79,0.00,,,0.97,meteohub,2013-03-31 04:31:00,
2013-03-30 23:32:00,66.6,59.9,-100.00,SSE,166,3.0,9.0,79,0.00,,,0.97,meteohub,2013-03-31 04:32:00,
2013-03-30 23:33:00,66.6,59.5,-100.00,SSE,166,4.0,9.0,78,0.00,,,0.97,meteohub,2013-03-31 04:33:00,
2013-03-30 23:34:00,66.6,59.5,-100.00,SSE,165,5.0,9.0,78,0.00,,,0.97,meteohub,2013-03-31 04:34:00,
2013-03-30 23:37:00,66.6,59.5,-100.00,SSE,165,3.0,9.0,78,0.00,,,0.97,meteohub,2013-03-31 04:37:00,
2013-03-30 23:38:00,66.6,59.5,-100.00,SSE,165,3.0,9.0,78,0.00,,,0.97,meteohub,2013-03-31 04:38:00,
2013-03-30 23:40:00,66.6,59.5,-100.00,SSE,165,3.0,9.0,78,0.00,,,0.97,meteohub,2013-03-31 04:40:00,
2013-03-30 23:42:00,66.4,59.4,-100.00,SSE,165,4.0,7.0,78,0.00,,,0.97,meteohub,2013-03-31 04:42:00,
2013-03-30 23:43:00,66.4,59.4,-100.00,SSE,165,5.0,7.0,78,0.00,,,0.97,meteohub,2013-03-31 04:43:00,
2013-03-30 23:45:00,66.4,59.4,-100.00,SSE,165,4.0,7.0,78,0.00,,,0.97,meteohub,2013-03-31 04:45:00,
2013-03-30 23:47:00,66.4,59.4,-100.00,SSE,165,4.0,9.0,78,0.00,,,0.97,meteohub,2013-03-31 04:47:00,
2013-03-30 23:48:00,66.4,59.4,-100.00,SSE,164,5.0,9.0,78,0.00,,,0.97,meteohub,2013-03-31 04:48:00,
2013-03-30 23:50:00,66.4,59.4,-100.00,SSE,164,5.0,9.0,78,0.00,,,0.97,meteohub,2013-03-31 04:50:00,
2013-03-30 23:52:00,66.4,59.4,-100.00,SSE,164,5.0,9.0,78,0.00,,,0.97,meteohub,2013-03-31 04:52:00,
2013-03-30 23:53:00,66.4,59.4,-100.00,SSE,164,3.0,9.0,78,0.00,,,0.97,meteohub,2013-03-31 04:53:00,
2013-03-30 23:54:00,66.4,59.4,-100.00,SSE,164,3.0,9.0,78,0.00,,,0.97,meteohub,2013-03-31 04:54:00,
2013-03-30 23:55:00,66.4,59.4,-100.00,SSE,164,4.0,9.0,78,0.00,,,0.97,meteohub,2013-03-31 04:55:00,
2013-03-30 23:57:00,66.4,59.4,-100.00,SSE,164,5.0,9.0,78,0.00,,,0.97,meteohub,2013-03-31 04:57:00,
2013-03-30 23:58:00,66.4,59.4,-100.00,SSE,164,5.0,9.0,78,0.00,,,0.97,meteohub,2013-03-31 04:58:00,
2013-03-30 23:59:00,66.4,59.4,-100.00,SSE,164,3.0,9.0,78,0.00,,,0.97,meteohub,2013-03-31 04:59:00,